Calls for Service

Disclaimer: This information is not intended to be used as official crime data. This program does not provide information about all crimes, and excludes specific incidents such as sexual assaults and child abuse. The City of Conway Police Department makes every effort to produce and publish current and accurate information. No warranties, expressed or implied, are provided for the data herein, its use, or its interpretation. The services provided are for informational purposes only and should not be relied on for any type of legal action.

Loading calls...
Showing calls from previous 10 days
Call Number Case Number Address Call Time Incident Type
21-0703775 1001 SALEM RD 2021-07-24 01:24:07.710 CHECKING PERSON
21-0703773 3270 TURTLE HILL CV 2021-07-24 00:57:30.997 NO CONTACT ORDER VIOLATION
21-0703772 2310 ROBINSON AV 2021-07-24 00:54:50.017 CHECKING PERSON
21-0703771 1040 HOLIDAY DR 2021-07-24 00:37:10.833 CHECKING VEHICLE
21-0703770 215 SKYLINE DR 2021-07-23 23:46:37.507 RECKLESS DRIVER
21-0703768 1311 COLLIER DR 2021-07-23 23:36:08.170 ATTEMPT TO CONTACT
21-0703764 3635 PRINCE ST 2021-07-23 22:58:09.570 911 HANGUP CALL
21-0703762 580 E DAVE WARD DR 2021-07-23 22:47:43.177 CHECKING VEHICLE
21-0703759 1155 SKYLINE DR 2021-07-23 22:26:52.917 CHECK ON THE WELFARE
21-0703757 21-07470 500 SOUTH GERMAN LN 2021-07-23 22:05:26.723 MISDEMEANOR WARRANT SERVICE
21-0703756 202 WILLOW ST 2021-07-23 22:01:56.557 LOUD NOISE-MUSIC
21-0703755 2109 SUGAR CREEK DR 2021-07-23 21:55:52.997 CHECK ON THE WELFARE
21-0703754 1105 PRAIRIE ST 2021-07-23 21:29:14.380 ATTEMPT TO CONTACT
21-0703753 1003 MUSEUM RD 2021-07-23 21:23:25.930 CHECKING BUILDING
21-0703752 800 S AMITY RD 2021-07-23 21:15:58.977 ABANDONED VEHICLE
21-0703751 2021-07-23 21:02:50.313 RECOVERED PROPERTY
21-0703750 20 FERNWOOD DR 2021-07-23 21:01:21.710 SHOTS FIRED
21-0703749 1403 BEAN ST 2021-07-23 20:59:06.193 DISTURBANCE
21-0703748 100 S ASH ST 2021-07-23 20:40:04.757 INTOXICATED DRIVER
21-0703747 1001 MUSEUM RD 2021-07-23 20:36:53.087 CHECK ON THE WELFARE
21-0703746 21-07469 1068 MARKHAM ST 2021-07-23 20:34:58.607 NO CONTACT ORDER VIOLATION
21-0703745 724 OAK ST 2021-07-23 20:32:10.410 CHECK ON THE WELFARE
21-0703744 1403 BEAN ST 2021-07-23 20:31:25.173 HARASSMENT
21-0703743 2720 ARCHER LN 2021-07-23 20:29:09.393 BARKING DOG COMPLAINT
21-0703740 545 E DAVE WARD DR 2021-07-23 20:07:03.280 ACCIDENT - PROPERTY DAMAGE
21-0703738 1330 M K CIR 2021-07-23 19:48:31.083 ALARM
21-0703737 530 S MITCHELL ST 2021-07-23 19:32:56.843 OPEN DOOR/WINDOW/FENCE
21-0703736 125 I40WB 2021-07-23 19:22:52.730 RECKLESS DRIVER
21-0703735 21-07468 2245 RAINWOOD AV 2021-07-23 19:21:04.270 DOMESTIC DISTURBANCE
21-0703734 209 SKYLINE DR 2021-07-23 19:19:31.320 CHECK ON THE WELFARE
21-0703731 1500 MUSEUM RD 2021-07-23 18:50:47.360 ACCIDENT - PROPERTY DAMAGE
21-0703730 2550 PRINCE ST 2021-07-23 18:43:02.517 THEFT OF PROPERTY
21-0703727 4645 UTAH TRL 2021-07-23 18:32:26.920 THEFT OF PROPERTY
21-0703724 475 ROBINS ST 2021-07-23 18:19:31.920 DOMESTIC DISTURBANCE
21-0703723 1105 PRAIRIE ST 2021-07-23 18:12:47.403 ATTEMPT TO CONTACT
21-0703716 2865 YORK LN 2021-07-23 17:36:07.303 ALARM
21-0703715 34 HUMMINGBIRD LN 2021-07-23 17:31:51.323 SUSPICIOUS ACTIVITY
21-0703713 21-07466 1090 COLLIER DR 2021-07-23 17:15:50.973 BREAKING OR ENTERING
21-0703710 21-07465 600 5TH AV 2021-07-23 17:03:46.353 FOUND PROPERTY
21-0703708 21-07464 901 E OAK ST 2021-07-23 16:40:56.453 ACCIDENT - PROPERTY DAMAGE
21-0703707 2745 CARL STUART ST 2021-07-23 16:38:06.980 STALLED VEHICLE
21-0703706 1105 SKYLINE DR 2021-07-23 16:29:21.207 ATTEMPT TO CONTACT
21-0703705 545 SKYLINE DR 2021-07-23 16:22:35.280 CIVIL STAND BY
21-0703704 2205 ROSEMARY DR 2021-07-23 16:19:05.317 LOUD NOISE-MUSIC
21-0703703 21 ROLLING HILLS DR 2021-07-23 16:17:08.833 ATTEMPT TO CONTACT
21-0703701 21-07463 461 HARKRIDER ST 2021-07-23 16:11:22.773 ACCIDENT - PROPERTY DAMAGE
21-0703700 2611 COLLEGE AV 2021-07-23 16:06:28.063 THEFT OF IDENTITY
21-0703699 702 S DONAGHEY AV 2021-07-23 15:44:28.433 ATTEMPT TO CONTACT
21-0703698 2010 E OAK ST 2021-07-23 15:36:53.397 CIVIL MATTER
21-0703697 550 E DAVE WARD DR 2021-07-23 15:31:05.583 CHECK ON THE WELFARE
21-0703695 600 5TH AV 2021-07-23 15:22:12.297 SUSPICIOUS PERSON
21-0703693 510 SOUTH GERMAN LN 2021-07-23 15:09:24.547 ATTEMPT TO CONTACT
21-0703691 21-07461 702 S DONAGHEY AV 2021-07-23 15:02:52.620 ACCIDENT - PROPERTY DAMAGE
21-0703690 550 E DAVE WARD DR 2021-07-23 15:01:37.957 CHECK ON THE WELFARE
21-0703689 2500 SAPPHIRE DR 2021-07-23 14:59:57.987 REPOSSESSION
21-0703688 2050 DAVE WARD DR 2021-07-23 14:59:16.317 TRESPASSING
21-0703684 1655 S DONAGHEY AV 2021-07-23 14:38:56.393 ATTEMPT TO CONTACT
21-0703683 21-07460 1155 SKYLINE DR 2021-07-23 14:30:28.973 SHOPLIFTING
21-0703682 1610 PRINCE ST 2021-07-23 14:21:38.947 CHECK ON THE WELFARE
21-0703681 2020 JOHNSTON AV 2021-07-23 14:12:42.110 TRESPASSING
21-0703680 2125 HARKRIDER ST 2021-07-23 14:07:37.483 CHECK ON THE WELFARE
21-0703678 205 E OAK ST 2021-07-23 14:02:28.063 ALARM - HOLD UP or PANIC
21-0703677 2307 STOUT ST 2021-07-23 14:02:25.990 CHECK ON THE WELFARE
21-0703671 10 HAWTHORNE DR 2021-07-23 13:37:26.513 ATTEMPT TO CONTACT
21-0703669 1930 RICH SMITH LN 2021-07-23 13:31:18.300 THEFT OF PROPERTY
21-0703667 1155 SKYLINE DR 2021-07-23 13:22:06.143 SHOPLIFTING
21-0703666 1117 GUM ST 2021-07-23 13:18:05.487 ATTEMPT TO CONTACT
21-0703664 1520 BERRYVINE DR 2021-07-23 13:15:27.253 ALARM - HOLD UP or PANIC
21-0703663 2301 COLLEGE AV 2021-07-23 13:09:42.220 MISDEMEANOR WARRANT SERVICE
21-0703662 2840 DAVE WARD DR 2021-07-23 13:06:06.953 REPOSSESSION
21-0703661 701 ROBINS ST 2021-07-23 13:03:48.977 STALLED VEHICLE
21-0703660 21-07459 2102 HAIRSTON AV 2021-07-23 13:02:47.057 HARASSMENT
21-0703654 1004 OAK ST 2021-07-23 12:33:41.887 HARASSING COMMUNICATIONS
21-0703653 1930 RICH SMITH LN 2021-07-23 12:33:39.373 CIVIL STAND BY
21-0703650 2302 COLLEGE AV 2021-07-23 12:15:52.207 FRAUD
21-0703649 650 ROBINS ST 2021-07-23 11:50:19.120 CHECK ON THE WELFARE
21-0703648 21-07457 916 E OAK ST 2021-07-23 11:39:25.643 ACCIDENT - PRIVATE PROPERTY
21-0703646 21-07458 3645 HEIDI CT 2021-07-23 11:36:16.503 BREAKING OR ENTERING
21-0703644 21-07456 867 FENDLEY DR 2021-07-23 11:21:15.500 DOMESTIC DISTURBANCE
21-0703643 407 HELEN ST 2021-07-23 11:20:51.307 SERVING SUBPOENA
21-0703642 290 GRAND FALLS 2021-07-23 11:05:14.783 ATTEMPT TO CONTACT
21-0703641 605 SOUTH GERMAN LN 2021-07-23 11:05:10.697 SERVING SUBPOENA
21-0703639 2390 DAHLIA 2021-07-23 11:02:27.630 SERVING SUBPOENA
21-0703638 1128 SKYLINE DR 2021-07-23 11:00:44.107 SUPPLEMENT REPORT CALL
21-0703637 955 S GERMAN LN 2021-07-23 10:51:39.467 SERVING SUBPOENA
21-0703636 955 SOUTH GERMAN LN 2021-07-23 10:51:08.640 SERVING SUBPOENA
21-0703635 100 HAYES ST 2021-07-23 10:49:00.700 ATTEMPT TO CONTACT
21-0703633 2495 SAPPHIRE DR 2021-07-23 10:46:18.693 ATTEMPT TO CONTACT
21-0703632 1967 ROBINS ST 2021-07-23 10:39:44.897 SERVING SUBPOENA
21-0703630 1020 FRONT ST 2021-07-23 10:38:41.913 PARKING VIOLATION
21-0703629 21-07453 908 HEATHER CIR 2021-07-23 10:36:46.697 FRAUD
21-0703628 21-07454 3300 CONFEDERATE 2021-07-23 10:36:21.150 ATTEMPT TO CONTACT
21-0703627 475 ROBINS ST 2021-07-23 10:35:16.820 ATTEMPT TO CONTACT
21-0703626 475 ROBINS ST 2021-07-23 10:33:15.280 ATTEMPT TO CONTACT
21-0703625 4100 RALEIGH DR 2021-07-23 10:28:58.217 SUPPLEMENT REPORT CALL
21-0703621 1655 S DONAGHEY AV 2021-07-23 10:11:36.480 ATTEMPT TO CONTACT
21-0703620 21-07451 1610 COX CV 2021-07-23 10:03:29.720 DEATH CALL
21-0703618 1105 PRAIRIE ST 2021-07-23 09:58:15.680 ATTEMPT TO CONTACT
21-0703615 1725 JACKSON DR 2021-07-23 09:55:33.157 ATTEMPT TO CONTACT
21-0703614 1128 SKYLINE DR 2021-07-23 09:51:40.967 SUPPLEMENT REPORT CALL
21-0703612 21-07450 3501 COLLEGE AV 2021-07-23 09:44:22.393 ABUSE
21-0703601 4425 UTAH TRL 2021-07-23 08:47:24.940 SERVING SUBPOENA
21-0703600 21-07449 950 CRAIN DR 2021-07-23 08:46:25.430 ACCIDENT - PROPERTY DAMAGE
21-0703597 21-07448 50 LOWER RIDGE RD 2021-07-23 08:38:31.973 ACCIDENT - PERSONAL INJURY
21-0703596 1725 JACKSON DR 2021-07-23 08:33:27.980 SERVING SUBPOENA
21-0703595 1655 DAVE WARD DR 2021-07-23 08:32:56.340 CHECKING VEHICLE
21-0703592 545 E DAVE WARD DR 2021-07-23 08:17:32.667 CHECK ON THE WELFARE
21-0703591 708 OAK ST 2021-07-23 07:49:45.543 ACCIDENT - PROPERTY DAMAGE
21-0703587 1201 EXCHANGE AV 2021-07-23 07:34:44.310 CHECK ON THE WELFARE
21-0703586 21-07447 815 E OAK ST 2021-07-23 06:53:40.190 PROPERTY DAMAGE
21-0703584 2400 PRINCE ST 2021-07-23 06:18:20.763 CHECKING PERSON
21-0703583 2755 TYLER ST 2021-07-23 06:17:16.393 ATTEMPT TO CONTACT
21-0703581 821 HOGAN LN 2021-07-23 06:10:03.873 SUPPLEMENT REPORT CALL
21-0703580 4215 PRINCE ST 2021-07-23 05:42:49.083 CHECK ON THE WELFARE
21-0703577 600 S HARKRIDER DR 2021-07-23 04:33:02.557 CHECKING PERSON
21-0703576 475 ROBINS ST 2021-07-23 04:18:36.720 DOMESTIC DISTURBANCE
21-0703575 2125 HARKRIDER ST 2021-07-23 04:06:54.613 CHECKING PERSON
21-0703574 950 ENDERLIN DR 2021-07-23 04:03:31.460 CHECK ON THE WELFARE
21-0703573 125 HAYES ST 2021-07-23 03:55:31.897 CIVIL MATTER
21-0703572 1205 E SKYLINE DR 2021-07-23 03:06:36.393 ALARM
21-0703570 21-07446 1105 PRAIRIE ST 2021-07-23 02:12:20.367 FOUND PROPERTY
21-0703569 2100 MORNING GLORY 2021-07-23 01:21:54.790 CHECKING PERSON
21-0703567 504 4TH ST 2021-07-23 00:23:39.423 REPOSSESSION
21-0703566 21-07445 600 E DAVE WARD DR 2021-07-23 00:20:43.193 CHECK ON THE WELFARE
21-0703565 700 EXCHANGE AV 2021-07-23 00:15:24.647 CHECKING VEHICLE
21-0703564 1355 EXCHANGE AV 2021-07-22 23:55:11.887 ALARM
21-0703563 2865 YORK LN 2021-07-22 23:32:07.347 RUNAWAY
21-0703562 1254 FLEMING ST 2021-07-22 23:11:07.777 SUPPLEMENT REPORT CALL
21-0703561 1155 SKYLINE DR 2021-07-22 23:02:40.493 ALARM
21-0703560 600 E DAVE WARD DR 2021-07-22 23:01:34.287 STALLED VEHICLE
21-0703559 150 SKYLINE DR 2021-07-22 22:53:52.170 BATTERY REPORT
21-0703554 500 SOUTH GERMAN LN 2021-07-22 21:17:42.143 SUPPLEMENT REPORT CALL
21-0703553 830 CORDOBA DR 2021-07-22 20:53:28.370 ALARM
21-0703549 21-07443 1600 E OAK ST 2021-07-22 20:23:47.243 THEFT OF PROPERTY
21-0703547 21-07444 1254 FLEMING ST 2021-07-22 20:20:43.587 BATTERY REPORT
21-0703546 2775 SUMMERSET DR 2021-07-22 20:04:32.357 ALARM
21-0703545 2850 PRINCE ST 2021-07-22 19:53:32.100 CHECK ON THE WELFARE
21-0703544 21-07442 201 SKYLINE DR 2021-07-22 19:51:22.803 ACCIDENT - PRIVATE PROPERTY
21-0703543 810 5TH ST 2021-07-22 19:46:45.890 CHECK ON THE WELFARE
21-0703542 402 OAK ST 2021-07-22 19:46:29.267 FIGHT
21-0703541 1355 EXCHANGE AV 2021-07-22 19:44:48.367 ALARM
21-0703539 21-07441 3040 PEBBLE BEACH DR 2021-07-22 18:50:17.923 FRAUD
21-0703538 25 NABCO DR 2021-07-22 18:33:37.017 ALARM - BANK
21-0703535 1835 OTT MEMORIAL BLVD 2021-07-22 18:23:23.553 SUSPICIOUS ACTIVITY
21-0703534 2235 DAVE WARD DR 2021-07-22 18:06:46.357 ALARM
21-0703533 2901 TYLER ST 2021-07-22 17:59:09.570 RECKLESS DRIVER
21-0703532 21-07440 2495 SAPPHIRE DR 2021-07-22 17:58:18.350 DOMESTIC DISTURBANCE
21-0703531 1304 MARKHAM ST 2021-07-22 17:47:57.613 SUSPICIOUS PERSON
21-0703530 2205 ROSEMARY DR 2021-07-22 17:30:58.360 LOUD NOISE-MUSIC
21-0703528 21-07439 1400 STORIE DR 2021-07-22 17:18:18.180 THEFT OF PROPERTY
21-0703527 375 MONROE ST 2021-07-22 16:43:26.540 REPOSSESSION
21-0703524 2330 SANDERS ST 2021-07-22 16:17:08.750 SUSPICIOUS PERSON
21-0703523 21-07438 1128 SKYLINE DR 2021-07-22 16:17:03.513 ACCIDENT - PERSONAL INJURY
21-0703522 21-07437 1901 E OAK ST 2021-07-22 16:12:42.357 ACCIDENT - PROPERTY DAMAGE
21-0703521 580 E DAVE WARD DR 2021-07-22 16:10:51.050 SUPPLEMENT REPORT CALL
21-0703520 223 MILL ST 2021-07-22 16:06:20.253 ATTEMPT TO CONTACT
21-0703519 21-07436 1325 ROBINS ST 2021-07-22 15:59:34.173 CRIMINAL MISCHIEF
21-0703517 899 CENTRAL LANDING BLVD 2021-07-22 15:53:13.793 ACCIDENT - PROPERTY DAMAGE
21-0703516 21-07435 421 E OAK ST 2021-07-22 15:53:11.373 ACCIDENT - PERSONAL INJURY
21-0703512 1513 EAST GERMAN LN 2021-07-22 15:35:07.153 ATTEMPT TO CONTACT
21-0703510 21-07434 1340 OLD MORRILTON HWY 2021-07-22 15:32:47.500 TERRORISTIC THREATENING
21-0703508 2500 OLD MORRILTON HWY 2021-07-22 15:29:09.443 RECKLESS DRIVER
21-0703507 21-07433 501 ELSINGER BLVD 2021-07-22 15:25:42.550 LOST PROPERTY
21-0703504 1100 STURGIS RD 2021-07-22 15:14:26.757 CHECK ON THE WELFARE
21-0703502 1500 HARKRIDER ST 2021-07-22 15:03:25.063 CHECK ON THE WELFARE
21-0703499 1250 HOGAN LN 2021-07-22 14:47:49.503 ATTEMPT TO CONTACT
21-0703497 790 ELSINGER BLVD 2021-07-22 14:35:49.013 SERVING SUBPOENA
21-0703493 21-07432 300 E HWY 64 2021-07-22 14:23:29.813 PURSUIT
21-0703492 21-07431 3280 TURTLE HILL CV 2021-07-22 14:21:25.493 DOMESTIC DISTURBANCE
21-0703491 1655 DAVE WARD DR 2021-07-22 14:21:12.433 DOMESTIC DISTURBANCE
21-0703489 600 SKYLINE DR 2021-07-22 13:53:02.427 CIVIL MATTER
21-0703488 2260 SANDERS ST 2021-07-22 13:48:37.380 SUSPICIOUS PERSON
21-0703487 3895 FRIENDSHIP RD 2021-07-22 13:32:55.610 ATTEMPT TO CONTACT
21-0703486 1012 E OAK ST 2021-07-22 13:32:15.980 SUSPICIOUS PERSON
21-0703484 1405 S DONAGHEY AV 2021-07-22 13:26:30.857 ATTEMPT TO CONTACT
21-0703482 1300 STONE CREST DR 2021-07-22 13:11:48.517 ATTEMPT TO CONTACT
21-0703481 21-07428 855 E OAK ST 2021-07-22 12:45:39.277 ACCIDENT - PRIVATE PROPERTY
21-0703480 100 SKYLINE DR 2021-07-22 12:26:41.577 STALLED VEHICLE
21-0703478 3900 KENNEDY LN 2021-07-22 12:20:42.063 ATTEMPT TO CONTACT
21-0703477 21-07427 525 SKYLINE DR 2021-07-22 12:19:04.450 ACCIDENT - PRIVATE PROPERTY
21-0703476 2021-07-22 12:15:15.690 ATTEMPT TO CONTACT
21-0703475 20 KINLEY DR 2021-07-22 12:07:11.950 SUPPLEMENT REPORT CALL
21-0703474 21-07426 350 SKYLINE DR 2021-07-22 12:05:07.530 ACCIDENT - PROPERTY DAMAGE
21-0703473 4630 PALM SPRINGS CIR 2021-07-22 11:44:17.610 SUPPLEMENT REPORT CALL
21-0703468 427 S ASH ST 2021-07-22 11:14:35.477 SUPPLEMENT REPORT CALL
21-0703467 6195 DAVE WARD DR 2021-07-22 11:12:55.987 ABANDONED VEHICLE
21-0703466 1265 HARKRIDER ST 2021-07-22 11:06:51.837 ATTEMPT TO CONTACT
21-0703465 1 S HWY 365 2021-07-22 11:06:10.900 TRAFFIC PROBLEM-CONTROL
21-0703464 21-07424 2100 DAVE WARD DR 2021-07-22 10:58:04.973 ACCIDENT - PROPERTY DAMAGE
21-0703463 1115 PARKWAY ST 2021-07-22 10:51:45.653 TRESPASSING
21-0703462 3130 PEBBLE BEACH DR 2021-07-22 10:46:03.357 CHECK ON THE WELFARE
21-0703461 2810 STONEWOOD DR 2021-07-22 10:43:59.267 ATTEMPT TO CONTACT
21-0703459 21-07420 1365 DONAGHEY AV 2021-07-22 10:38:44.710 AGENCY ASSIST
21-0703458 475 ROBINS ST 2021-07-22 10:38:33.203 DISTURBANCE
21-0703455 21-07422 2099 SOUTH BLVD 2021-07-22 10:26:04.030 ACCIDENT - PROPERTY DAMAGE
21-0703454 21-07423 2010 RICH SMITH LN 2021-07-22 10:23:01.457 FRAUD
21-0703453 1212 HARRISON ST 2021-07-22 10:20:01.530 SHOTS FIRED
21-0703447 21-07425 12 BROADMOOR DR 2021-07-22 10:01:11.490 ATTEMPT TO CONTACT
21-0703446 21-07421 4630 PALM SPRINGS CIR 2021-07-22 09:58:49.853 THEFT OF PROPERTY
21-0703445 21-07417 405 OAK ST 2021-07-22 09:51:49.270 BATTERY REPORT
21-0703443 1105 SKYLINE DR 2021-07-22 09:37:01.080 SUPPLEMENT REPORT CALL
21-0703438 4540 PRINCE ST 2021-07-22 09:00:43.130 TRAFFIC LIGHT PROBLEM
21-0703437 21-07415 1125 S HARKRIDER DR 2021-07-22 08:58:43.803 CRIMINAL MISCHIEF
21-0703433 2300 PRINCE ST 2021-07-22 08:25:42.367 TRESPASSING
21-0703432 21-07418 1235 STURGIS RD 2021-07-22 07:58:17.770 CRIMINAL MISCHIEF
21-0703431 2720 COLLINS DR 2021-07-22 07:45:20.417 ATTEMPT TO CONTACT
21-0703430 2660 COLLINS DR 2021-07-22 07:44:08.823 ALARM
21-0703429 21-07414 14 HILTON DR 2021-07-22 07:27:10.957 ACCIDENT - PERSONAL INJURY
21-0703427 21-07416 1 HAWTHORNE DR 2021-07-22 07:21:33.773 ACCIDENT - PROPERTY DAMAGE
21-0703426 1080 S AMITY RD 2021-07-22 07:18:19.473 SUSPICIOUS PERSON
21-0703425 1701 HARKRIDER ST 2021-07-22 06:28:47.623 RECKLESS DRIVER
21-0703424 2720 COLLINS DR 2021-07-22 06:03:53.130 UNAUTHORIZED USE OF MOTOR VEHICLE
21-0703423 2720 GLOHAVEN DR 2021-07-22 05:37:03.020 ABANDONED VEHICLE
21-0703421 805 AMITY RD 2021-07-22 03:52:49.907 CHECKING VEHICLE
21-0703420 3110 PEBBLE BEACH DR 2021-07-22 02:58:32.937 PROWLER
21-0703419 2840 DAVE WARD DR 2021-07-22 02:39:34.717 RECOVERED PROPERTY
21-0703418 21-07413 2840 DAVE WARD DR 2021-07-22 02:12:27.383 TRESPASSING
21-0703416 1095 SKYLINE DR 2021-07-22 01:31:44.830 SUSPICIOUS PERSON
21-0703415 540 UNITED DR 2021-07-22 01:13:32.187 CHECKING VEHICLE
21-0703413 21-07411 600 SKYLINE DR 2021-07-22 00:32:32.303 ACCIDENT - PERSONAL INJURY
21-0703412 1160 COLLIER DR 2021-07-22 00:29:04.350 ALARM
21-0703410 21-07412 375 E OAK ST 2021-07-22 00:23:20.593 SUSPICIOUS PERSON
21-0703409 2895 DAVE WARD DR 2021-07-22 00:01:48.207 ALARM - HOLD UP or PANIC
21-0703408 2840 DAVE WARD DR 2021-07-21 23:55:55.713 SHOTS FIRED
21-0703407 2113 DUNCAN ST 2021-07-21 23:32:14.040 CHECK ON THE WELFARE
21-0703406 1 CADRON SETTLEMENT PARK RD 2021-07-21 23:25:37.340 CHECKING VEHICLE
21-0703404 21-07410 411 DURHAM ST 2021-07-21 22:57:59.053 TERRORISTIC THREATENING
21-0703403 1845 DRURY LN 2021-07-21 22:57:24.310 ALARM
21-0703402 2720 COLLINS DR 2021-07-21 22:52:01.027 DOMESTIC DISTURBANCE
21-0703401 650 DAVE WARD DR 2021-07-21 22:41:15.770 CHECK ON THE WELFARE
21-0703400 1632 DONAGHEY AV 2021-07-21 22:26:41.037 ALARM
21-0703399 21-07409 150 E OAK ST 2021-07-21 22:14:50.107 TERRORISTIC THREATENING
21-0703397 1900 HOGAN LN 2021-07-21 22:09:38.807 CIVIL STAND BY
21-0703396 2280 SANDERS ST 2021-07-21 21:54:08.967 ALARM
21-0703393 2220 PRINCE ST 2021-07-21 21:52:07.323 CHECKING PERSON
21-0703390 1640 DUKE ST 2021-07-21 21:42:29.060 DOMESTIC DISTURBANCE
21-0703389 2840 DAVE WARD DR 2021-07-21 21:26:23.057 FIGHT
21-0703387 1035 SKYLINE DR 2021-07-21 21:14:38.413 SUSPICIOUS PERSON
21-0703384 1620 MIDDLE RD 2021-07-21 21:08:00.017 CHECK ON THE WELFARE
21-0703383 1400 E DAVE WARD DR 2021-07-21 21:07:46.593 CHECK ON THE WELFARE
21-0703381 500 SOUTH GERMAN LN 2021-07-21 21:03:01.307 ATTEMPT TO CONTACT
21-0703379 1814 HOGAN LN 2021-07-21 20:40:42.847 SUPPLEMENT REPORT CALL
21-0703377 700 2ND AV 2021-07-21 20:05:17.837 BREAKING OR ENTERING
21-0703376 1535 GREENWOOD CIR 2021-07-21 19:56:52.157 NO CONTACT ORDER VIOLATION
21-0703375 2202 STOUT ST 2021-07-21 19:52:09.293 CITIZEN ASSIST
21-0703373 21-07406 500 OAK ST 2021-07-21 19:42:14.757 ACCIDENT - PERSONAL INJURY
21-0703372 21-07407 1325 OLD MORRILTON HWY 2021-07-21 19:30:26.380 ACCIDENT - PRIVATE PROPERTY
21-0703371 21-07405 1316 HAMILTON ST 2021-07-21 19:26:26.203 ACCIDENT - HIT AND RUN
21-0703370 2840 DAVE WARD DR 2021-07-21 19:16:29.880 BATTERY REPORT
21-0703369 2725 COLLEGE AV 2021-07-21 18:38:47.937 ALARM
21-0703368 2255 REMINGTON RD 2021-07-21 18:25:40.817 PARKING VIOLATION
21-0703366 1155 SKYLINE DR 2021-07-21 18:18:43.430 SUSPICIOUS PERSON
21-0703365 900 E SIEBENMORGEN RD 2021-07-21 18:17:33.140 STALLED VEHICLE
21-0703364 21-07404 1305 MARISSA ST 2021-07-21 18:00:56.867 DOMESTIC DISTURBANCE
21-0703363 21-07403 1900 HOGAN LN 2021-07-21 17:51:58.180 DOMESTIC DISTURBANCE
21-0703362 1800 HAIRSTON AV 2021-07-21 17:44:36.853 CRIMINAL MISCHIEF
21-0703361 325 S MITCHELL ST 2021-07-21 17:41:04.587 ATTEMPT TO CONTACT
21-0703360 1221 CLIFTON ST 2021-07-21 17:37:26.647 SUSPICIOUS ACTIVITY
21-0703359 21-07402 2100 DAVE WARD DR 2021-07-21 17:30:58.320 ACCIDENT - PROPERTY DAMAGE
21-0703358 2255 STURGIS RD 2021-07-21 17:17:05.107 911 HANGUP CALL
21-0703357 1325 OLD MORRILTON HWY 2021-07-21 17:14:45.843 ACCIDENT - PRIVATE PROPERTY
21-0703356 21-07401 825 CHAPEL HILL DR 2021-07-21 16:55:16.770 TRESPASSING
21-0703355 21-07400 700 CRAIN DR 2021-07-21 16:54:50.840 ACCIDENT - PROPERTY DAMAGE
21-0703353 21-07399 1171 E OAK ST 2021-07-21 16:36:51.440 ACCIDENT - PROPERTY DAMAGE
21-0703352 1701 DAVE WARD DR 2021-07-21 16:32:30.687 SUPPLEMENT REPORT CALL
21-0703351 122 HARKRIDER ST 2021-07-21 16:29:57.610 STALLED VEHICLE
21-0703350 2325 DAVE WARD DR 2021-07-21 16:28:53.110 HARASSMENT
21-0703349 1105 PRAIRIE ST 2021-07-21 16:26:07.170 MISDEMEANOR WARRANT SERVICE
21-0703346 1155 SKYLINE DR 2021-07-21 16:19:50.547 RECKLESS DRIVER
21-0703344 1120 EAST GERMAN LN 2021-07-21 16:16:41.260 VEHICLE TOW
21-0703341 1500 HAIRSTON AV 2021-07-21 16:06:43.683 CHECKING VEHICLE
21-0703340 1266 S AMITY RD 2021-07-21 16:05:00.747 SUSPICIOUS PERSON
21-0703339 21-07396 3900 DAVE WARD DR 2021-07-21 16:01:19.110 LOST PROPERTY
21-0703338 3625 EMERY CV 2021-07-21 15:54:09.437 SUPPLEMENT REPORT CALL
21-0703335 1120 EAST GERMAN LN 2021-07-21 15:43:17.220 BATTERY REPORT
21-0703334 475 ROBINS ST 2021-07-21 15:43:08.970 DISTURBANCE
21-0703333 21-07395 855 AMITY RD 2021-07-21 15:40:05.563 ACCIDENT - PRIVATE PROPERTY
21-0703332 21-07393 20 KINLEY DR 2021-07-21 15:26:16.887 THEFT OF PROPERTY
21-0703328 2217 ARKANSAS AV 2021-07-21 15:14:20.140 SUPPLEMENT REPORT CALL
21-0703326 3900 DAVE WARD DR 2021-07-21 15:00:21.280 SUSPICIOUS PERSON
21-0703325 21-07391 1500 S AMITY RD 2021-07-21 14:57:45.087 ACCIDENT - PROPERTY DAMAGE
21-0703323 2425 DAVE WARD DR 2021-07-21 14:40:51.933 SUPPLEMENT REPORT CALL
21-0703322 2127 CALDWELL ST 2021-07-21 14:33:04.293 CIVIL MATTER
21-0703321 835 S DONAGHEY AV 2021-07-21 14:29:36.573 CHECK ON THE WELFARE
21-0703317 21-07390 1250 S AMITY RD 2021-07-21 14:11:47.053 ACCIDENT - PRIVATE PROPERTY
21-0703316 21-07389 354 MITCHELL ST 2021-07-21 14:07:59.893 DEATH CALL
21-0703311 620 2ND ST 2021-07-21 13:47:22.830 CITY ORDINANCE VIOLATION
21-0703310 500 LOCUST AV 2021-07-21 13:45:19.527 STALLED VEHICLE
21-0703307 580 E DAVE WARD DR 2021-07-21 13:30:15.113 CHECK ON THE WELFARE
21-0703306 21-07388 1155 SKYLINE DR 2021-07-21 13:29:56.750 FRAUD
21-0703305 1640 DUKE ST 2021-07-21 13:29:49.477 RUNAWAY
21-0703304 2710 PRINCE ST 2021-07-21 13:28:27.093 FRAUD
21-0703303 21-07387 1068 MARKHAM ST 2021-07-21 13:27:57.123 ACCIDENT - PRIVATE PROPERTY
21-0703300 1090 COLLIER DR 2021-07-21 13:10:52.010 BREAKING OR ENTERING
21-0703299 855 SALEM RD 2021-07-21 13:06:58.630 TRESPASSING
21-0703298 707 ROBINS ST 2021-07-21 13:05:01.700 FIRE DEPT ASSIST
21-0703296 21-07386 2021-07-21 13:00:07.863 ACCIDENT - PROPERTY DAMAGE
21-0703294 2415 T J DR 2021-07-21 12:53:52.443 BURGLARY
21-0703293 433 BERNARD DR 2021-07-21 12:34:18.500 ATTEMPT TO CONTACT
21-0703288 21-07385 1155 SKYLINE DR 2021-07-21 12:14:53.650 THEFT OF PROPERTY
21-0703287 790 ELSINGER BLVD 2021-07-21 12:11:40.173 SERVING SUBPOENA
21-0703281 3291 OLD MORRILTON HWY 2021-07-21 11:48:47.323 SUPPLEMENT REPORT CALL
21-0703277 21-07383 201 SKYLINE DR 2021-07-21 11:28:16.613 FOUND PROPERTY
21-0703276 21-07384 1750 VILLAGE COMMONS DR 2021-07-21 11:25:54.293 FRAUD
21-0703275 906 PINE ST 2021-07-21 11:21:24.890 SUSPICIOUS PERSON
21-0703274 580 E DAVE WARD DR 2021-07-21 11:19:22.680 FIRE DEPT ASSIST
21-0703272 2125 HARKRIDER ST 2021-07-21 11:17:38.497 SUSPICIOUS VEHICLE
21-0703271 21-07382 1090 COLLIER DR 2021-07-21 11:13:48.707 THEFT OF VEHICLE
21-0703270 21-07381 831 SKYLINE DR 2021-07-21 11:09:19.407 ACCIDENT - HIT AND RUN
21-0703269 1930 RICH SMITH LN 2021-07-21 11:02:38.357 CIVIL MATTER
21-0703268 401 2ND ST 2021-07-21 11:01:13.547 DOMESTIC DISTURBANCE
21-0703267 1935 DUNCAN ST 2021-07-21 10:52:35.520 TRESPASSING
21-0703263 150 SKYLINE DR 2021-07-21 10:32:27.100 ATTEMPT TO CONTACT
21-0703261 2001 DONAGHEY AV 2021-07-21 10:28:04.517 RECKLESS DRIVER
21-0703258 21-07379 1100 MILL ST 2021-07-21 10:05:07.927 ACCIDENT - PROPERTY DAMAGE
21-0703257 602 DONAGHEY AV 2021-07-21 09:59:40.097 CIVIL MATTER
21-0703256 867 FENDLEY DR 2021-07-21 09:52:36.430 CIVIL MATTER
21-0703255 1330 E OAK ST 2021-07-21 09:44:49.900 ACCIDENT - PRIVATE PROPERTY
21-0703254 1504 WESTERN AV 2021-07-21 09:40:58.340 CHECK ON THE WELFARE
21-0703252 545 E DAVE WARD DR 2021-07-21 09:31:35.143 TRESPASSING
21-0703251 1930 RICH SMITH LN 2021-07-21 09:26:38.827 CIVIL MATTER
21-0703248 2025 CALDWELL ST 2021-07-21 09:20:18.077 CHECK ON THE WELFARE
21-0703246 475 ROBINS ST 2021-07-21 09:19:34.013 SUSPICIOUS ACTIVITY
21-0703245 21 ROLLING HILLS DR 2021-07-21 09:15:54.980 SUPPLEMENT REPORT CALL
21-0703244 500 ELSINGER BLVD 2021-07-21 09:15:45.067 SERVING SUBPOENA
21-0703242 21-07380 1930 RICH SMITH LN 2021-07-21 09:04:14.950 ATTEMPT TO CONTACT
21-0703241 21-07378 1601 HOGAN LN 2021-07-21 08:56:33.777 HARASSMENT
21-0703240 1685 POTEETE DR 2021-07-21 08:50:13.940 ALARM
21-0703238 2145 ROSEMARY DR 2021-07-21 08:49:26.890 ANIMAL BITE
21-0703237 10 CEDAR HILL LP 2021-07-21 08:47:37.997 CHECK ON THE WELFARE
21-0703236 1930 RICH SMITH LN 2021-07-21 08:35:15.677 ATTEMPT TO CONTACT
21-0703234 828 NORTH CREEK DR 2021-07-21 08:18:41.100 ALARM
21-0703233 1685 POTEETE DR 2021-07-21 08:07:35.783 ALARM
21-0703232 412 3RD ST 2021-07-21 08:05:06.887 FOUND PROPERTY
21-0703231 1317 GARVIN AV 2021-07-21 07:52:43.020 911 HANGUP CALL
21-0703230 2850 PRINCE ST 2021-07-21 07:42:13.627 RECOVERED VEHICLE
21-0703229 1318 FRONT ST 2021-07-21 07:41:36.120 CHECK ON THE WELFARE
21-0703228 1155 PARKWAY ST 2021-07-21 07:35:06.303 ALARM
21-0703226 2085 KEATHLEY DR 2021-07-21 06:31:40.480 TERRORISTIC THREATENING
21-0703225 2280 SANDERS ST 2021-07-21 06:17:18.993 ALARM
21-0703224 3110 WINDSONG LN 2021-07-21 03:49:14.093 ALARM
21-0703222 905 SALEM RD 2021-07-21 02:03:46.543 CHECKING PERSON
21-0703221 1100 E OAK ST 2021-07-21 01:45:19.363 SUSPICIOUS VEHICLE
21-0703220 2116 TYLER ST 2021-07-21 01:22:54.033 REPOSSESSION
21-0703219 43 MOCKINGBIRD LN 2021-07-21 01:17:03.783 DOMESTIC DISTURBANCE
21-0703218 1930 RICH SMITH LN 2021-07-21 00:46:31.267 CIVIL STAND BY
21-0703217 500 OAK ST 2021-07-21 00:37:19.953 STALLED VEHICLE
21-0703216 1210 E OAK ST 2021-07-21 00:35:15.957 SUSPICIOUS PERSON
21-0703215 2145 ROSEMARY DR 2021-07-21 00:30:09.290 CHECK ON THE WELFARE
21-0703213 1115 GUM ST 2021-07-21 00:19:02.370 DISTURBANCE
21-0703212 21-07377 1200 COVINGTON WAY 2021-07-21 00:14:28.867 ACCIDENT - PRIVATE PROPERTY
21-0703211 1200 COVINGTON WAY 2021-07-20 23:22:50.270 DOMESTIC DISTURBANCE
21-0703210 1010 HOGAN LN 2021-07-20 23:13:58.593 CHECKING PERSON
21-0703209 2200 WASHINGTON AV 2021-07-20 23:12:18.060 LOUD NOISE-MUSIC
21-0703208 1930 RICH SMITH LN 2021-07-20 23:08:08.207 TRESPASSING
21-0703207 4055 GLENWOOD DR 2021-07-20 23:04:43.480 BURGLARY
21-0703206 1127 HARKRIDER ST 2021-07-20 22:52:08.220 ALARM
21-0703205 475 ROBINS ST 2021-07-20 22:23:52.030 TRESPASSING
21-0703203 21-07375 558 HARKRIDER ST 2021-07-20 22:12:43.543 ACCIDENT - PROPERTY DAMAGE
21-0703201 614 3RD AV 2021-07-20 22:00:49.050 FIRE DEPT ASSIST
21-0703199 325 HEREFORD ST 2021-07-20 21:50:19.040 TRAFFIC PROBLEM-CONTROL
21-0703197 828 NORTH CREEK DR 2021-07-20 21:47:46.450 ALARM
21-0703196 1651 HAIRSTON AV 2021-07-20 21:34:19.330 CHECK ON THE WELFARE
21-0703195 270 E SKYLINE DR 2021-07-20 21:32:07.507 TRESPASSING
21-0703194 4605 VALIANT DR 2021-07-20 21:31:03.083 DOMESTIC DISTURBANCE
21-0703192 1835 OTT MEMORIAL BLVD 2021-07-20 21:19:35.457 ATTEMPT TO CONTACT
21-0703190 150 SKYLINE DR 2021-07-20 21:06:33.873 DISTURBANCE
21-0703189 3700 DAVE WARD DR 2021-07-20 21:05:45.523 RECKLESS DRIVER
21-0703188 21-07373 20 KINLEY DR 2021-07-20 20:58:21.450 ACCIDENT - PRIVATE PROPERTY
21-0703186 1775 OLD MORRILTON HWY 2021-07-20 20:38:42.267 TRESPASSING
21-0703185 401 AMITY RD 2021-07-20 20:34:59.850 TRAFFIC PROBLEM-CONTROL
21-0703183 1930 RICH SMITH LN 2021-07-20 20:10:59.043 CIVIL MATTER
21-0703182 1127 GUM ST 2021-07-20 20:05:11.550 ATTEMPT TO CONTACT
21-0703181 500 OAK ST 2021-07-20 19:49:19.050 THEFT OF PROPERTY
21-0703179 525 SKYLINE DR 2021-07-20 19:46:38.627 DISTURBANCE
21-0703177 21-07372 580 E DAVE WARD DR 2021-07-20 19:24:35.253 THEFT OF VEHICLE
21-0703176 1105 SKYLINE DR 2021-07-20 19:18:14.517 DISTURBANCE
21-0703175 1224 JERSEY ST 2021-07-20 19:13:12.127 DOMESTIC DISTURBANCE
21-0703174 2127 CALDWELL ST 2021-07-20 19:06:51.793 CIVIL MATTER
21-0703173 1835 ROBINS ST 2021-07-20 18:53:04.260 CIVIL STAND BY
21-0703172 1970 RICH SMITH LN 2021-07-20 18:38:50.423 ATTEMPT TO CONTACT
21-0703171 401 2ND ST 2021-07-20 18:36:30.573 911 HANGUP CALL
21-0703170 602 DONAGHEY AV 2021-07-20 18:28:52.450 CIVIL MATTER
21-0703169 545 E DAVE WARD DR 2021-07-20 18:15:02.160 ATTEMPT TO CONTACT
21-0703168 3115 PEBBLE BEACH DR 2021-07-20 18:11:45.727 LOST PROPERTY
21-0703167 716 OAK ST 2021-07-20 18:11:37.403 ALARM
21-0703166 21-07371 1020 RAYMOND DR 2021-07-20 18:07:10.613 BREAKING OR ENTERING
21-0703164 1155 SKYLINE DR 2021-07-20 17:46:39.807 TRESPASSING
21-0703163 21-07370 1001 MUSEUM RD 2021-07-20 17:44:08.203 ACCIDENT - PROPERTY DAMAGE
21-0703162 3430 IRBY DR 2021-07-20 17:43:48.900 DISTURBANCE
21-0703159 505 E DAVE WARD DR 2021-07-20 17:31:54.903 OPEN DOOR/WINDOW/FENCE
21-0703157 924 MAIN ST 2021-07-20 17:27:08.643 CHECK ON THE WELFARE
21-0703155 325 S MITCHELL ST 2021-07-20 17:08:39.870 CIVIL MATTER
21-0703154 1105 PRAIRIE ST 2021-07-20 17:04:55.350 ATTEMPT TO CONTACT
21-0703153 475 ROBINS ST 2021-07-20 16:55:54.260 ROBBERY
21-0703150 1525 DAVIS ST 2021-07-20 16:53:59.850 SUPPLEMENT REPORT CALL
21-0703148 799 S HOGAN LN 2021-07-20 16:47:55.520 TRAFFIC PROBLEM-CONTROL
21-0703147 2302 COLLEGE AV 2021-07-20 16:45:20.720 ATTEMPT TO CONTACT
21-0703146 3900 LEDBETTER DR 2021-07-20 16:43:19.903 FIRE-SUSPICIOUS PACKAGE
21-0703145 475 ROBINS ST 2021-07-20 16:42:42.750 CIVIL MATTER
21-0703142 2127 CALDWELL ST 2021-07-20 16:29:39.470 DOMESTIC DISTURBANCE
21-0703141 2010 RICH SMITH LN 2021-07-20 16:21:24.347 CHECK ON THE WELFARE
21-0703139 21-07369 1171 E OAK ST 2021-07-20 16:18:15.087 ACCIDENT - PROPERTY DAMAGE
21-0703138 600 5TH AV 2021-07-20 16:06:48.647 SUSPICIOUS PERSON
21-0703137 21-07368 1922 KEATHLEY DR 2021-07-20 15:59:51.500 ABUSE
21-0703134 20 KINLEY DR 2021-07-20 15:39:19.663 LOST CHILD
21-0703133 21 ROLLING HILLS DR 2021-07-20 15:33:07.067 SUPPLEMENT REPORT CALL
21-0703132 21-07367 2235 RAINTREE DR 2021-07-20 15:32:35.460 NO CONTACT ORDER VIOLATION
21-0703131 21-07366 1525 DAVIS ST 2021-07-20 15:17:45.897 BURGLARY
21-0703130 21-07365 1040 S AMITY RD 2021-07-20 15:10:37.590 ACCIDENT - PERSONAL INJURY
21-0703128 21-07363 501 ELSINGER BLVD 2021-07-20 14:58:54.043 LOST PROPERTY
21-0703127 321 HEREFORD ST 2021-07-20 14:40:28.510 REPOSSESSION
21-0703126 21-07361 2100 MEADOWLAKE RD 2021-07-20 14:37:19.350 ACCIDENT - PROPERTY DAMAGE
21-0703125 600 SKYLINE DR 2021-07-20 14:09:56.833 ALARM - HOLD UP or PANIC
21-0703124 117 S DONAGHEY AV 2021-07-20 14:09:19.153 SUPPLEMENT REPORT CALL
21-0703123 1105 PRAIRIE ST 2021-07-20 14:08:42.277 ATTEMPT TO CONTACT
21-0703121 1410 ROBINS ST 2021-07-20 14:04:01.787 DOMESTIC DISTURBANCE
21-0703120 1105 PRAIRIE ST 2021-07-20 14:01:06.513 ATTEMPT TO CONTACT
21-0703119 850 OAK ST 2021-07-20 13:49:20.437 ATTEMPT TO CONTACT
21-0703117 1505 OLD MORRILTON HWY 2021-07-20 13:41:55.730 911 HANGUP CALL
21-0703116 1105 PRAIRIE ST 2021-07-20 13:38:14.043 ATTEMPT TO CONTACT
21-0703114 4001 OLD MORRILTON HWY 2021-07-20 13:33:38.473 RECKLESS DRIVER
21-0703112 2499 SANDERS ST 2021-07-20 13:19:52.490 CHECK ON THE WELFARE
21-0703109 1105 PRAIRIE ST 2021-07-20 13:05:12.890 ATTEMPT TO CONTACT
21-0703108 21-07356 40 BLAIR RD 2021-07-20 12:51:19.037 K9 SEARCH-REPORT
21-0703107 21-07360 678 ELSINGER BLVD 2021-07-20 12:50:27.770 ACCIDENT - PRIVATE PROPERTY
21-0703106 1105 PRAIRIE ST 2021-07-20 12:39:24.123 ATTEMPT TO CONTACT
21-0703105 1901 E OAK ST 2021-07-20 12:36:50.453 SUPPLEMENT REPORT CALL
21-0703104 21-07357 1440 DAVE WARD DR 2021-07-20 12:33:34.900 ACCIDENT - PROPERTY DAMAGE
21-0703103 21-07355 1124 HARKRIDER ST 2021-07-20 12:33:12.803 ACCIDENT - PERSONAL INJURY
21-0703102 1124 HARKRIDER ST 2021-07-20 12:32:45.687 ACCIDENT - PERSONAL INJURY
21-0703093 955 SOUTH GERMAN LN 2021-07-20 11:47:48.040 CHECKING VEHICLE
21-0703092 21-07354 246 OAK ST 2021-07-20 11:47:22.827 THEFT OF PROPERTY
21-0703091 21-07352 2465 SANDERS ST 2021-07-20 11:46:34.317 ACCIDENT - PRIVATE PROPERTY
21-0703090 875 SKYLINE DR 2021-07-20 11:29:52.690 TRESPASSING
21-0703089 1105 PRAIRIE ST 2021-07-20 11:23:16.930 ATTEMPT TO CONTACT
21-0703088 475 ROBINS ST 2021-07-20 11:20:02.877 ATTEMPT TO CONTACT
21-0703087 1885 MILESTONE DR 2021-07-20 11:18:23.757 CRIMINAL MISCHIEF
21-0703085 1115 PARKWAY ST 2021-07-20 11:00:31.827 STALKING
21-0703082 21-07351 1895 E OAK ST 2021-07-20 10:34:08.913 ACCIDENT - PRIVATE PROPERTY
21-0703080 207 WILLOW ST 2021-07-20 10:31:49.200 SUSPICIOUS PERSON
21-0703079 21-07350 2100 MEADOWLAKE RD 2021-07-20 10:30:33.710 ACCIDENT - PRIVATE PROPERTY
21-0703077 21 ROLLING HILLS DR 2021-07-20 10:11:42.130 SUPPLEMENT REPORT CALL
21-0703075 21-07349 450 SKYLINE DR 2021-07-20 10:03:59.970 TERRORISTIC THREATENING
21-0703072 1224 JERSEY ST 2021-07-20 09:51:38.880 MISSING PERSON
21-0703071 1127 GUM ST 2021-07-20 09:42:32.810 ATTEMPT TO CONTACT
21-0703069 646 S HARKRIDER DR 2021-07-20 09:22:00.340 TRESPASSING
21-0703068 550 SKYLINE DR 2021-07-20 09:20:23.343 SUPPLEMENT REPORT CALL
21-0703066 650 SKYLINE DR 2021-07-20 09:12:29.393 CHECK ON THE WELFARE
21-0703064 7 RIVIERA DR 2021-07-20 09:11:00.230 PARKING VIOLATION
21-0703061 21-07346 2302 COLLEGE AV 2021-07-20 08:23:23.267 CHECK ON THE WELFARE
21-0703060 3635 PRINCE ST 2021-07-20 08:20:45.277 DOMESTIC DISTURBANCE
21-0703058 21-07348 1240 RAYMOND DR 2021-07-20 08:12:36.480 BREAKING OR ENTERING
21-0703057 301 HUBBARD RD 2021-07-20 08:03:12.203 ALARM - HOLD UP or PANIC
21-0703056 21-07345 1405 LOLLIE RD 2021-07-20 08:02:05.490 CHECK ON THE WELFARE
21-0703055 21-07347 1020 CLARENCE DR 2021-07-20 07:47:16.570 BREAKING OR ENTERING
21-0703053 21-07344 925 OAK ST 2021-07-20 07:02:35.017 CHECK ON THE WELFARE
21-0703052 2302 COLLEGE AV 2021-07-20 06:51:33.253 CHECK ON THE WELFARE
21-0703051 2302 COLLEGE AV 2021-07-20 06:12:38.913 CHECK ON THE WELFARE
21-0703050 831 NUTTERS CHAPEL RD 2021-07-20 05:49:31.597 UNKNOWN TROUBLE
21-0703048 14 MOCKINGBIRD LN 2021-07-20 05:31:11.840 SUSPICIOUS VEHICLE
21-0703047 220 E OAK ST 2021-07-20 05:23:11.587 RECKLESS DRIVER
21-0703046 2430 SANDERS ST 2021-07-20 05:14:50.490 SUSPICIOUS ACTIVITY
21-0703045 3100 IRBY DR 2021-07-20 04:02:03.787 THEFT OF VEHICLE
21-0703044 1601 HOGAN LN 2021-07-20 03:50:56.547 SUPPLEMENT REPORT CALL
21-0703043 1160 COLLIER DR 2021-07-20 01:47:24.050 ALARM
21-0703039 1205 E SKYLINE DR 2021-07-20 00:50:32.533 AGENCY ASSIST
21-0703038 2550 PRINCE ST 2021-07-20 00:49:28.950 ARMED SUBJECT
21-0703037 21-07343 1201 OLD MORRILTON HWY 2021-07-20 00:44:56.410 CHECKING VEHICLE
21-0703034 21-07342 405 MAPLE ST 2021-07-19 23:55:00.163 INDECENT EXPOSURE
21-0703029 21-07341 2015 RICH SMITH LN 2021-07-19 23:08:36.420 DOMESTIC DISTURBANCE
21-0703028 3705 MCCONNELL DR 2021-07-19 22:52:21.193 SHOTS FIRED
21-0703019 8 WOODBRIDGE DR 2021-07-19 21:41:24.870 CHECK ON THE WELFARE
21-0703017 4080 ZACHARY TRL 2021-07-19 21:26:24.570 SUSPICIOUS VEHICLE
21-0703016 600 5TH AV 2021-07-19 21:18:28.390 DOMESTIC DISTURBANCE
21-0703014 3650 JEANNA DR 2021-07-19 21:05:59.883 LOUD NOISE-MUSIC
21-0703010 4552 PRINCE ST 2021-07-19 20:40:53.753 REPOSSESSION
21-0703009 623 SIEBENMORGEN RD 2021-07-19 20:40:49.070 SHOTS FIRED
21-0703008 21-07340 740 SPRUCE ST 2021-07-19 20:38:45.383 SHOTS FIRED
21-0703005 2050 DAVE WARD DR 2021-07-19 20:25:35.267 CHECK ON THE WELFARE
21-0703004 21-07338 402 HEREFORD ST 2021-07-19 20:19:00.800 ABUSE
21-0703000 1105 SKYLINE DR 2021-07-19 19:47:19.100 CHECK ON THE WELFARE
21-0702999 21-07336 600 WESTHAVEN DR 2021-07-19 19:43:13.850 CRIMINAL MISCHIEF
21-0702998 21-07337 1155 SKYLINE DR 2021-07-19 19:41:03.820 SHOPLIFTING
21-0702997 600 5TH AV 2021-07-19 19:35:07.620 SUSPICIOUS VEHICLE
21-0702996 4655 OREGON TRL 2021-07-19 19:16:46.617 RECKLESS DRIVER
21-0702995 217 S CENTER ST 2021-07-19 18:21:22.750 SUPPLEMENT REPORT CALL
21-0702994 1001 HARKRIDER ST 2021-07-19 18:16:19.640 RECKLESS DRIVER
21-0702993 3099 SALEM RD 2021-07-19 18:15:45.593 ACCIDENT - PROPERTY DAMAGE
21-0702991 600 5TH AV 2021-07-19 18:02:46.570 SUSPICIOUS VEHICLE
21-0702990 1155 SKYLINE DR 2021-07-19 18:02:20.797 SUSPICIOUS VEHICLE
21-0702989 1155 SKYLINE DR 2021-07-19 17:52:14.513 SUSPICIOUS VEHICLE
21-0702988 21-07334 550 SKYLINE DR 2021-07-19 17:39:46.190 CIVIL MATTER
21-0702987 21-07335 2130 WILMINGTON DR 2021-07-19 17:37:11.823 BREAKING OR ENTERING
21-0702986 311 OAK ST 2021-07-19 17:34:35.913 DISTURBANCE
21-0702985 1464 FACTORY ST 2021-07-19 17:34:17.417 DOMESTIC DISTURBANCE
21-0702984 21-07333 1105 SKYLINE DR 2021-07-19 17:30:04.280 DOMESTIC DISTURBANCE
21-0702983 1105 PRAIRIE ST 2021-07-19 17:25:04.907 ATTEMPT TO CONTACT
21-0702982 21-07332 3240 STERMER RD 2021-07-19 17:17:55.727 RUNAWAY
21-0702980 600 S HARKRIDER DR 2021-07-19 17:04:39.260 RECOVERED PROPERTY
21-0702979 1760 S SALEM RD 2021-07-19 16:50:30.710 ALARM
21-0702978 780 MILAM DR 2021-07-19 16:46:26.980 UNKNOWN TROUBLE
21-0702975 433 BERNARD DR 2021-07-19 16:30:50.127 ATTEMPT TO CONTACT
21-0702974 21 ROLLING HILLS DR 2021-07-19 16:15:15.547 SUPPLEMENT REPORT CALL
21-0702972 2540 MARIE DR 2021-07-19 15:51:32.320 HARASSMENT
21-0702971 3195 BLANEY HILL RD 2021-07-19 15:41:05.187 PROPERTY DAMAGE
21-0702969 2300 PRINCE ST 2021-07-19 15:29:00.923 CHECK ON THE WELFARE
21-0702968 831 NUTTERS CHAPEL RD 2021-07-19 15:25:58.800 CHECK ON THE WELFARE
21-0702967 7 RIVIERA DR 2021-07-19 15:15:28.467 PARKING VIOLATION
21-0702966 1930 RICH SMITH LN 2021-07-19 15:10:34.883 SUPPLEMENT REPORT CALL
21-0702965 3635 PRINCE ST 2021-07-19 15:07:40.013 DOMESTIC DISTURBANCE
21-0702964 831 NUTTERS CHAPEL RD 2021-07-19 14:56:33.720 CHECK ON THE WELFARE
21-0702963 1415 GARDENIA 2021-07-19 14:29:32.527 CIVIL MATTER
21-0702962 21-07331 500 E OAK ST 2021-07-19 14:14:29.273 ACCIDENT - PROPERTY DAMAGE
21-0702961 3100 IRBY DR 2021-07-19 14:13:15.883 VEHICLE TOW
21-0702960 101 E ROBINS ST 2021-07-19 14:06:50.870 CHECKING VEHICLE
21-0702959 21-07330 400 POLK ST 2021-07-19 14:01:16.750 HARASSMENT
21-0702958 525 SOUTH GERMAN LN 2021-07-19 14:00:09.993 MISDEMEANOR WARRANT SERVICE
21-0702954 433 BERNARD DR 2021-07-19 13:31:55.967 FOUND PROPERTY
21-0702953 5330 WILDE DR 2021-07-19 13:28:56.523 SUPPLEMENT REPORT CALL
21-0702950 600 5TH AV 2021-07-19 13:14:33.107 SUSPICIOUS PERSON
21-0702949 831 NUTTERS CHAPEL RD 2021-07-19 13:14:06.140 CHECK ON THE WELFARE
21-0702948 1720 JOSH DR 2021-07-19 13:11:51.997 ATTEMPT TO CONTACT
21-0702947 1105 PRAIRIE ST 2021-07-19 13:09:02.860 ATTEMPT TO CONTACT
21-0702946 21-07329 2215 CEDAR OAKS DR 2021-07-19 13:01:02.573 ACCIDENT - PROPERTY DAMAGE
21-0702943 2235 MILLWOOD DR 2021-07-19 12:50:11.783 ALARM - HOLD UP or PANIC
21-0702942 612 CHESTNUT ST 2021-07-19 12:47:03.860 ANIMAL BITE
21-0702941 314 ELIZABETH ST 2021-07-19 12:45:03.777 AGENCY ASSIST
21-0702940 21-07328 600 5TH AV 2021-07-19 12:44:58.733 ACCIDENT - PROPERTY DAMAGE
21-0702935 600 5TH AV 2021-07-19 12:26:44.507 SUSPICIOUS PERSON
21-0702931 4101 TYLER ST 2021-07-19 12:10:56.907 RECKLESS DRIVER
21-0702930 29 LOWER RIDGE RD 2021-07-19 12:09:21.883 CHECK ON THE WELFARE
21-0702929 3895 FRIENDSHIP RD 2021-07-19 12:02:41.810 SUSPICIOUS PERSON
21-0702928 21-07327 545 E DAVE WARD DR 2021-07-19 12:01:38.497 ACCIDENT - PROPERTY DAMAGE
21-0702926 4010 MAYTAG DR 2021-07-19 11:30:19.133 SUSPICIOUS ACTIVITY
21-0702922 2270 ROSEMARY DR 2021-07-19 11:14:15.203 BREAKING OR ENTERING
21-0702921 1600 WESTLAKE DR 2021-07-19 11:13:19.907 ALARM - HOLD UP or PANIC
21-0702920 3895 FRIENDSHIP RD 2021-07-19 11:11:56.913 SUSPICIOUS PERSON
21-0702919 125 E OAK ST 2021-07-19 11:01:45.600 SUPPLEMENT REPORT CALL
21-0702918 2695 DAVE WARD DR 2021-07-19 10:58:57.063 SUPPLEMENT REPORT CALL
21-0702916 2901 TYLER ST 2021-07-19 10:52:33.787 ACCIDENT - PROPERTY DAMAGE
21-0702915 3196 COLLEGE AV 2021-07-19 10:46:16.930 RECKLESS DRIVER
21-0702914 4905 ABBEY GAIL DR 2021-07-19 10:44:05.613 PARKING VIOLATION
21-0702913 21-07325 20 KINLEY DR 2021-07-19 10:42:50.593 THEFT OF PROPERTY
21-0702912 21-07324 1175 WOODSIDE DR 2021-07-19 10:40:58.950 SUPPLEMENT REPORT CALL
21-0702911 4800 SHEPHERDS CREEK DR 2021-07-19 10:39:36.830 PARKING VIOLATION
21-0702910 2830 SUMMERSET DR 2021-07-19 10:37:27.580 ALARM
21-0702909 400 WILLOW ST 2021-07-19 10:34:38.850 TRAFFIC PROBLEM-CONTROL
21-0702908 2490 SANDERS ST 2021-07-19 10:31:56.717 FIRE DEPT ASSIST
21-0702904 655 DAVE WARD DR 2021-07-19 10:21:20.853 SUPPLEMENT REPORT CALL
21-0702902 2540 MARIE DR 2021-07-19 10:08:26.370 ATTEMPT TO CONTACT
21-0702901 21-07326 21 ROLLING HILLS DR 2021-07-19 09:49:57.177 BURGLARY
21-0702900 3034 DONNELL RIDGE RD 2021-07-19 09:44:23.320 SUPPLEMENT REPORT CALL
21-0702899 530 S DONAGHEY AV 2021-07-19 09:42:24.350 THEFT OF PROPERTY
21-0702898 1115 PARKWAY ST 2021-07-19 09:34:03.983 SUPPLEMENT REPORT CALL
21-0702897 1515 DAVE WARD DR 2021-07-19 09:13:02.180 CHECKING VEHICLE
21-0702895 3299 STONE RD 2021-07-19 09:02:42.733 CIVIL MATTER
21-0702893 2135 MATTHEWS MEADOWS LN 2021-07-19 08:50:31.263 ALARM
21-0702892 20 HUMMINGBIRD LN 2021-07-19 08:49:35.000 PROPERTY DAMAGE
21-0702891 427 S ASH ST 2021-07-19 08:25:07.357 SUPPLEMENT REPORT CALL
21-0702890 1825 E OAK ST 2021-07-19 08:22:05.183 SUSPICIOUS ACTIVITY
21-0702889 585 COMMERCE RD 2021-07-19 08:19:38.700 ABANDONED VEHICLE
21-0702888 2850 PRINCE ST 2021-07-19 08:13:10.930 BURGLARY
21-0702887 2135 ROSEMARY DR 2021-07-19 08:11:30.943 BREAKING OR ENTERING
21-0702886 21-07322 375 E OAK ST 2021-07-19 08:11:21.263 THEFT OF PROPERTY
21-0702885 619 SIEBENMORGEN RD 2021-07-19 07:56:40.820 ACCIDENT - PRIVATE PROPERTY
21-0702884 21-07321 2824 PRINCE ST 2021-07-19 07:54:48.097 THEFT OF VEHICLE
21-0702883 21-07318 646 S HARKRIDER DR 2021-07-19 07:48:47.077 LOST PROPERTY
21-0702881 950 E 6TH ST 2021-07-19 07:13:39.763 CHECKING VEHICLE
21-0702880 21-07320 830 NORTH CREEK DR 2021-07-19 06:53:21.070 BREAKING OR ENTERING
21-0702879 25 NABCO DR 2021-07-19 06:45:37.630 ALARM
21-0702878 350 E OAK ST 2021-07-19 05:29:08.513 SUSPICIOUS VEHICLE
21-0702875 21-07317 1105 PRAIRIE ST 2021-07-19 05:05:06.997 CHECKING VEHICLE
21-0702873 1025 S DONAGHEY AV 2021-07-19 04:27:26.800 FIRE DEPT ASSIST
21-0702872 800 S HARKRIDER DR 2021-07-19 04:27:21.157 SUSPICIOUS PERSON
21-0702870 600 DAVE WARD DR 2021-07-19 04:16:20.920 SUSPICIOUS PERSON
21-0702869 2799 SALEM RD 2021-07-19 03:53:50.993 ACCIDENT - PROPERTY DAMAGE
21-0702867 2915 DAVE WARD DR 2021-07-19 03:28:46.717 CHECKING VEHICLE
21-0702866 810 MUSEUM RD 2021-07-19 03:09:07.360 TRESPASSING
21-0702863 21-07316 375 E OAK ST 2021-07-19 02:10:01.777 BATTERY REPORT
21-0702860 1601 HOGAN LN 2021-07-19 01:23:32.780 SUPPLEMENT REPORT CALL
21-0702859 1601 HOGAN LN 2021-07-19 00:36:25.080 ATTEMPT TO CONTACT
21-0702856 1620 MIDDLE RD 2021-07-19 00:09:01.143 DOMESTIC DISTURBANCE
21-0702855 21-07315 1601 HOGAN LN 2021-07-18 22:56:09.050 THEFT OF PROPERTY
21-0702854 21-07314 1635 JASMINE 2021-07-18 22:53:15.270 NO CONTACT ORDER VIOLATION
21-0702851 1915 ARROWHEAD LN 2021-07-18 22:12:07.503 DOMESTIC DISTURBANCE
21-0702850 21-07313 2302 COLLEGE AV 2021-07-18 21:49:27.647 BATTERY REPORT
21-0702849 2799 SALEM RD 2021-07-18 21:45:56.303 STALLED VEHICLE
21-0702848 1555 EXCHANGE AV 2021-07-18 21:27:58.270 ATTEMPT TO CONTACT
21-0702847 1090 SKYLINE DR 2021-07-18 21:27:34.490 LOUD NOISE-MUSIC
21-0702846 1325 OLD MORRILTON HWY 2021-07-18 21:26:27.980 CHECKING VEHICLE
21-0702845 1750 VILLAGE COMMONS DR 2021-07-18 21:17:12.437 SHOTS FIRED
21-0702844 999 9TH AV 2021-07-18 21:16:48.367 STALLED VEHICLE
21-0702842 905 E OAK ST 2021-07-18 20:37:06.863 ATTEMPT TO CONTACT
21-0702841 1601 HOGAN LN 2021-07-18 20:23:37.973 CHECK ON THE WELFARE
21-0702839 215 SKYLINE DR 2021-07-18 20:15:15.727 RECKLESS DRIVER
21-0702837 825 OAK ST 2021-07-18 20:08:10.827 CHECK ON THE WELFARE
21-0702836 530 S DONAGHEY AV 2021-07-18 20:07:40.147 ATTEMPT TO CONTACT
21-0702835 21-07312 1115 PARKWAY ST 2021-07-18 20:01:07.553 TERRORISTIC THREATENING
21-0702833 530 S DONAGHEY AV 2021-07-18 19:43:11.610 TERRORISTIC THREATENING
21-0702831 21-07311 701 REEDY RD 2021-07-18 18:40:39.507 THEFT OF PROPERTY
21-0702830 221 GARLAND ST 2021-07-18 18:31:59.407 UNKNOWN TROUBLE
21-0702829 613 MONROE ST 2021-07-18 18:21:13.787 SUSPICIOUS ACTIVITY
21-0702828 300 S DONAGHEY AV 2021-07-18 18:14:40.017 CIVIL MATTER
21-0702826 127 I40EB 2021-07-18 17:52:43.943 CHECK ON THE WELFARE
21-0702825 21-07310 703 GROVE ST 2021-07-18 17:46:14.580 HARASSING COMMUNICATIONS
21-0702823 2611 COLLEGE AV 2021-07-18 16:58:41.423 CIVIL MATTER
21-0702822 21-07307 500 SOUTH GERMAN LN 2021-07-18 16:58:12.753 AGENCY ASSIST
21-0702821 1701 DAVE WARD DR 2021-07-18 16:49:32.253 SUPPLEMENT REPORT CALL
21-0702820 1105 PRAIRIE ST 2021-07-18 16:36:50.933 ATTEMPT TO CONTACT
21-0702819 500 E OAK ST 2021-07-18 16:25:44.173 STALLED VEHICLE
21-0702818 217 S CENTER ST 2021-07-18 16:18:25.357 SUPPLEMENT REPORT CALL
21-0702817 1155 SKYLINE DR 2021-07-18 16:12:12.263 SUPPLEMENT REPORT CALL
21-0702816 21-07306 270 E SKYLINE DR 2021-07-18 16:05:51.240 ACCIDENT - PRIVATE PROPERTY
21-0702815 1105 SALEM RD 2021-07-18 15:59:38.237 CITIZEN ASSIST
21-0702814 21-07305 125 I40WB 2021-07-18 15:57:37.973 CHECK ON THE WELFARE
21-0702813 21-07308 2217 ARKANSAS AV 2021-07-18 15:52:50.967 LOST CHILD
21-0702812 21-07304 1701 DAVE WARD DR 2021-07-18 15:30:33.547 HARASSING COMMUNICATIONS
21-0702811 1305 DAVE WARD DR 2021-07-18 15:27:22.593 ROAD RAGE
21-0702810 640 BRISTOL LN 2021-07-18 15:20:25.200 ALARM
21-0702809 2901 COLLEGE AV 2021-07-18 15:11:02.767 STALLED VEHICLE
21-0702808 1701 SALEM RD 2021-07-18 15:00:58.123 STALLED VEHICLE
21-0702807 1105 PRAIRIE ST 2021-07-18 14:58:40.250 ATTEMPT TO CONTACT
21-0702806 2550 PRINCE ST 2021-07-18 14:56:05.557 ATTEMPT TO CONTACT
21-0702805 1155 SKYLINE DR 2021-07-18 14:55:40.100 STALLED VEHICLE
21-0702804 475 ROBINS ST 2021-07-18 14:47:38.603 LOUD NOISE-MUSIC
21-0702803 200 E DAVE WARD DR 2021-07-18 14:45:15.073 SUPPLEMENT REPORT CALL
21-0702802 475 ROBINS ST 2021-07-18 14:34:13.177 LOUD NOISE-MUSIC
21-0702800 21-07302 1105 PRAIRIE ST 2021-07-18 14:16:39.943 BATTERY REPORT
21-0702799 21-07303 3601 COLLEGE AV 2021-07-18 14:12:21.230 ACCIDENT - PROPERTY DAMAGE
21-0702798 200 E DAVE WARD DR 2021-07-18 14:05:13.260 SUPPLEMENT REPORT CALL
21-0702797 900 INGRAM ST 2021-07-18 13:47:06.603 STALLED VEHICLE
21-0702796 1105 SKYLINE DR 2021-07-18 13:31:29.597 DISTURBANCE
21-0702795 600 5TH AV 2021-07-18 13:24:53.037 RECKLESS DRIVER
21-0702793 401 2ND ST 2021-07-18 13:09:18.997 CHECK ON THE WELFARE
21-0702792 815 E OAK ST 2021-07-18 13:04:34.560 TRESPASSING
21-0702791 1001 HARKRIDER ST 2021-07-18 13:03:48.067 RECKLESS DRIVER
21-0702790 21-07301 125 E OAK ST 2021-07-18 12:53:12.307 CIVIL MATTER
21-0702787 21-07300 200 E DAVE WARD DR 2021-07-18 12:32:19.103 ACCIDENT - PROPERTY DAMAGE
21-0702786 1835 ROBINS ST 2021-07-18 12:30:05.013 ATTEMPT TO CONTACT
21-0702785 600 5TH AV 2021-07-18 12:24:21.390 SUSPICIOUS PERSON
21-0702783 1430 SOUTHERN HILLS DR 2021-07-18 12:11:50.670 CIVIL STAND BY
21-0702781 801 DONAGHEY AV 2021-07-18 12:02:57.603 FIRE DEPT ASSIST
21-0702779 2599 WASHINGTON AV 2021-07-18 11:58:45.347 RECKLESS DRIVER
21-0702778 1835 ROBINS ST 2021-07-18 11:54:32.580 CIVIL MATTER
21-0702775 900 INGRAM ST 2021-07-18 11:30:14.823 STALLED VEHICLE
21-0702773 21-07298 3601 DAVE WARD DR 2021-07-18 11:20:36.117 CHECKING BUILDING
21-0702772 2550 PRINCE ST 2021-07-18 10:58:08.027 TERRORISTIC THREATENING
21-0702771 27 SANDSTONE DR 2021-07-18 10:52:48.960 ALARM
21-0702770 1010 E OAK ST 2021-07-18 10:49:10.383 VEHICLE TOW
21-0702769 21-07297 3491 DAVE WARD DR 2021-07-18 10:47:40.243 THEFT OF PROPERTY
21-0702768 1105 SKYLINE DR 2021-07-18 10:27:52.187 DOMESTIC DISTURBANCE
21-0702766 21-07296 2505 E OAK ST 2021-07-18 10:12:36.590 PROPERTY DAMAGE
21-0702764 799 POLK ST 2021-07-18 09:48:28.463 CHECKING VEHICLE
21-0702762 530 S DONAGHEY AV 2021-07-18 08:42:42.320 CIVIL MATTER
21-0702760 5595 TYLER ST 2021-07-18 08:30:42.357 ATTEMPT TO CONTACT
21-0702758 530 S DONAGHEY AV 2021-07-18 08:05:00.510 CIVIL MATTER
21-0702755 475 ROBINS ST 2021-07-18 08:00:12.717 TRESPASSING
21-0702752 1775 OLD MORRILTON HWY 2021-07-18 06:52:10.233 CHECKING VEHICLE
21-0702751 889 HEATHER CIR 2021-07-18 06:26:55.190 AGENCY ASSIST
21-0702749 581 HARKRIDER ST 2021-07-18 06:24:06.637 PURSUIT DRILL
21-0702748 1501 BEAN ST 2021-07-18 05:59:58.437 UNKNOWN TROUBLE
21-0702747 1890 E OAK ST 2021-07-18 05:57:55.140 ALARM
21-0702745 5 NOB HILL DR 2021-07-18 02:49:38.183 CHECK ON THE WELFARE
21-0702744 21-07295 2500 ROBINSON AV 2021-07-18 02:37:13.443 TRAFFIC PROBLEM-CONTROL
21-0702743 2220 PRINCE ST 2021-07-18 02:08:22.203 CHECKING VEHICLE
21-0702742 21-07294 1721 HUTTO ST 2021-07-18 02:06:53.640 CRIMINAL MISCHIEF
21-0702740 2085 KEATHLEY DR 2021-07-18 01:56:23.573 SHOTS FIRED
21-0702739 3635 PRINCE ST 2021-07-18 01:53:30.897 DOMESTIC DISTURBANCE
21-0702738 1 SPRING CIR 2021-07-18 01:38:38.050 MISSING PERSON
21-0702737 1095 SKYLINE DR 2021-07-18 01:32:23.130 DISORDERLY CONDUCT
21-0702736 585 COMMERCE RD 2021-07-18 01:02:27.533 CHECKING VEHICLE
21-0702735 3185 STONE RD 2021-07-18 00:45:47.140 TRESPASSING
21-0702734 21-07292 1602 CHERRY ST 2021-07-18 00:27:00.600 LOUD NOISE-MUSIC
21-0702732 2199 EAST GERMAN LN 2021-07-18 00:24:15.157 ACCIDENT - PERSONAL INJURY
21-0702731 21-07293 1865 ARDEN LN 2021-07-18 00:21:49.093 DISTURBANCE
21-0702730 124 LOCUST AV 2021-07-18 00:18:20.607 CHECK ON THE WELFARE
21-0702726 900 SOUTH GERMAN LN 2021-07-17 23:19:40.667 CHECKING VEHICLE
21-0702725 21-07291 2840 DAVE WARD DR 2021-07-17 23:18:39.060 HARASSING COMMUNICATIONS
21-0702724 21-07289 1099 SIEBENMORGEN RD 2021-07-17 23:09:02.730 ACCIDENT - PROPERTY DAMAGE
21-0702723 21-07290 2200 MEADOWLAKE RD 2021-07-17 22:59:16.503 THEFT OF VEHICLE
21-0702722 700 E OAK ST 2021-07-17 22:57:24.983 STALLED VEHICLE
21-0702720 320 SHAW ST 2021-07-17 22:33:54.093 ATTEMPT TO CONTACT
21-0702717 21-07288 1555 EXCHANGE AV 2021-07-17 22:24:08.010 BATTERY REPORT
21-0702716 500 ELSINGER BLVD 2021-07-17 22:10:48.503 ALARM
21-0702715 1600 GREENWOOD CIR 2021-07-17 22:00:34.467 SUSPICIOUS VEHICLE
21-0702714 1835 ROBINS ST 2021-07-17 21:30:18.133 DOMESTIC DISTURBANCE
21-0702713 4920 SHEPHERDS CREEK DR 2021-07-17 21:21:54.430 DOMESTIC DISTURBANCE
21-0702712 21-07287 150 E SIEBENMORGEN RD 2021-07-17 21:16:51.743 ABUSE
21-0702710 21-07286 3550 LOLLIE RD 2021-07-17 21:09:41.933 RECKLESS DRIVER
21-0702708 207 WILLOW ST 2021-07-17 20:37:03.283 LOUD NOISE-MUSIC
21-0702707 21-07285 530 S DONAGHEY AV 2021-07-17 20:22:35.500 HARASSING COMMUNICATIONS
21-0702706 5150 JOHN W. ALLISON RD 2021-07-17 20:22:21.947 SUSPICIOUS VEHICLE
21-0702705 201 SKYLINE DR 2021-07-17 20:10:17.233 LOUD NOISE-MUSIC
21-0702702 200 WILLOW ST 2021-07-17 19:49:29.373 LOUD NOISE-MUSIC
21-0702701 1699 MANOR ST 2021-07-17 19:34:27.580 STALLED VEHICLE
21-0702700 650 SKYLINE DR 2021-07-17 19:21:14.043 RECKLESS DRIVER
21-0702698 584 COMMERCE RD 2021-07-17 18:55:10.863 SUPPLEMENT REPORT CALL
21-0702697 1605 ROBINSON AV 2021-07-17 18:54:00.417 CHECK ON THE WELFARE
21-0702696 21-07283 254 OAK ST 2021-07-17 18:40:59.280 FRAUD
21-0702695 21-07284 313 S ASH ST 2021-07-17 18:37:43.153 NO CONTACT ORDER VIOLATION
21-0702694 3847 DAVE WARD DR 2021-07-17 18:28:03.520 911 HANGUP CALL
21-0702693 21-07282 1885 MILESTONE DR 2021-07-17 18:10:03.633 DOMESTIC DISTURBANCE
21-0702691 655 ELSINGER BLVD 2021-07-17 18:01:26.157 CHECK ON THE WELFARE
21-0702689 21-07281 3291 OLD MORRILTON HWY 2021-07-17 17:11:26.323 ACCIDENT - PERSONAL INJURY
21-0702688 142 CONWAY BLVD 2021-07-17 17:03:56.090 ATTEMPT TO CONTACT
21-0702687 1599 S HARKRIDER DR 2021-07-17 16:44:11.317 CITIZEN ASSIST
21-0702686 21-07279 207 WILLOW ST 2021-07-17 16:42:50.660 BREAKING OR ENTERING
21-0702685 21-07280 1500 HARKRIDER ST 2021-07-17 16:39:51.493 ACCIDENT - PROPERTY DAMAGE
21-0702684 816 CHESTNUT ST 2021-07-17 16:35:19.097 FIRE DEPT ASSIST
21-0702682 21-07278 1725 POTEETE DR 2021-07-17 16:15:15.307 HARASSMENT
21-0702681 1825 THOUSAND OAKS CIR 2021-07-17 16:12:06.837 ATTEMPT TO CONTACT
21-0702680 1555 EXCHANGE AV 2021-07-17 16:02:27.247 CHECK ON THE WELFARE
21-0702679 3800 COLLEGE AV 2021-07-17 15:57:47.490 DISTURBANCE
21-0702678 21-07277 2302 COLLEGE AV 2021-07-17 15:17:57.590 ACCIDENT - PRIVATE PROPERTY
21-0702677 2890 DAVE WARD DR 2021-07-17 15:16:05.530 SUSPICIOUS ACTIVITY
21-0702676 2021-07-17 14:39:37.077 ATTEMPT TO CONTACT
21-0702675 855 SALEM RD 2021-07-17 14:20:15.950 CHECKING VEHICLE
21-0702672 965 CARSON CV 2021-07-17 14:10:59.423 ALARM
21-0702671 21-07275 2050 DAVE WARD DR 2021-07-17 14:08:25.033 HARASSMENT
21-0702670 1155 SKYLINE DR 2021-07-17 14:08:08.527 SUPPLEMENT REPORT CALL
21-0702669 1100 BRUCE ST 2021-07-17 14:05:59.847 RECKLESS DRIVER
21-0702668 142 CONWAY BLVD 2021-07-17 14:05:09.887 MISSING PERSON
21-0702665 1930 RICH SMITH LN 2021-07-17 13:55:39.310 TRESPASSING
21-0702664 2025 CALDWELL ST 2021-07-17 13:55:06.763 UNKNOWN TROUBLE
21-0702662 1105 PRAIRIE ST 2021-07-17 13:34:06.333 ATTEMPT TO CONTACT
21-0702661 1930 RICH SMITH LN 2021-07-17 13:16:59.700 CIVIL MATTER
21-0702660 2535 DONAGHEY AV 2021-07-17 13:14:03.100 CHECK ON THE WELFARE
21-0702659 1710 CALDWELL ST 2021-07-17 13:08:03.790 911 HANGUP CALL
21-0702658 2760 HARBELLE DR 2021-07-17 12:59:47.963 ALARM
21-0702657 2105 MILLWOOD DR 2021-07-17 12:42:54.020 RECOVERED PROPERTY
21-0702655 21-07274 1250 S AMITY RD 2021-07-17 12:10:54.073 ACCIDENT - PRIVATE PROPERTY
21-0702653 21-07272 2165 HARKRIDER ST 2021-07-17 11:54:18.687 ACCIDENT - HIT AND RUN
21-0702652 1695 SOUTH GERMAN LN 2021-07-17 11:45:14.700 ALARM
21-0702651 125 I40EB 2021-07-17 11:44:02.240 RECKLESS DRIVER
21-0702650 1155 SKYLINE DR 2021-07-17 11:19:56.650 SUPPLEMENT REPORT CALL
21-0702649 2410 DAHLIA 2021-07-17 11:05:39.043 CITIZEN ASSIST
21-0702648 1900 TYLER ST 2021-07-17 10:50:33.697 CHECK ON THE WELFARE
21-0702647 1825 E OAK ST 2021-07-17 10:50:02.113 TRESPASSING
21-0702646 21-07271 1172 E OAK ST 2021-07-17 10:49:26.263 ACCIDENT - PROPERTY DAMAGE
21-0702645 329 HELEN ST 2021-07-17 10:39:57.720 CIVIL STAND BY
21-0702643 21-07270 950 CRAIN DR 2021-07-17 10:21:40.597 ACCIDENT - PROPERTY DAMAGE
21-0702642 21-07269 1155 SKYLINE DR 2021-07-17 10:11:20.490 ACCIDENT - PRIVATE PROPERTY
21-0702639 3460 TUSCARORA DR 2021-07-17 10:01:37.163 CIVIL STAND BY
21-0702637 1304 OAK ST 2021-07-17 09:44:39.487 THEFT OF PROPERTY
21-0702636 245 FARRIS RD 2021-07-17 09:36:38.827 VEHICLE TOW
21-0702635 21-07268 329 HELEN ST 2021-07-17 09:32:06.170 CIVIL STAND BY
21-0702634 500 E OAK ST 2021-07-17 09:28:19.307 CHECK ON THE WELFARE
21-0702631 3460 TUSCARORA DR 2021-07-17 09:08:51.887 ATTEMPT TO CONTACT
21-0702630 3800 COLLEGE AV 2021-07-17 08:38:48.747 HARASSMENT
21-0702627 21-07267 433 BERNARD DR 2021-07-17 08:09:05.867 THEFT OF VEHICLE
21-0702626 21-07266 1302 FRONT ST 2021-07-17 08:03:56.143 FOUND PROPERTY
21-0702625 3460 TUSCARORA DR 2021-07-17 08:01:25.930 CHECK ON THE WELFARE
21-0702624 505 SALEM RD 2021-07-17 07:34:17.067 TRESPASSING
21-0702623 21-07265 433 BERNARD DR 2021-07-17 06:34:41.960 CRIMINAL MISCHIEF
21-0702622 207 WILLOW ST 2021-07-17 05:23:45.743 BREAKING OR ENTERING
21-0702621 1316 CLAYTON ST 2021-07-17 04:59:40.663 911 HANGUP CALL
21-0702620 2845 CARL STUART ST 2021-07-17 04:48:25.393 CHECKING BUILDING
21-0702619 2880 CARL STUART ST 2021-07-17 04:41:16.510 ALARM
21-0702618 21-07264 23 BERNARD DR 2021-07-17 04:23:07.210 CHECKING VEHICLE
21-0702617 1601 HOGAN LN 2021-07-17 04:21:52.103 RECOVERED PROPERTY
21-0702616 1601 S DONAGHEY AV 2021-07-17 04:17:39.827 CHECKING BUILDING
21-0702615 1970 RICH SMITH LN 2021-07-17 03:29:04.427 SUSPICIOUS ACTIVITY
21-0702614 433 BERNARD DR 2021-07-17 03:11:58.333 THEFT OF VEHICLE
21-0702613 2200 MEADOWLAKE RD 2021-07-17 02:59:30.227 SUSPICIOUS PERSON
21-0702612 1890 E OAK ST 2021-07-17 02:40:28.067 ALARM
21-0702611 207 WILLOW ST 2021-07-17 02:11:53.400 LOUD NOISE-MUSIC
21-0702610 2730 DAVE WARD DR 2021-07-17 02:07:12.940 LOUD NOISE-MUSIC
21-0702609 2050 DAVE WARD DR 2021-07-17 02:03:27.220 CHECKING VEHICLE
21-0702608 3040 PEBBLE BEACH DR 2021-07-17 01:54:56.673 LOUD NOISE-MUSIC
21-0702607 2220 PRINCE ST 2021-07-17 01:35:29.713 CHECKING PERSON
21-0702606 21-07263 1800 MILESTONE DR 2021-07-17 01:30:07.077 ACCIDENT - PROPERTY DAMAGE
21-0702605 2101 LEE AV 2021-07-17 00:50:35.337 LOUD NOISE-MUSIC
21-0702601 21-07262 1010 MAIN ST 2021-07-17 00:36:55.750 FIGHT
21-0702600 4010 MAYTAG DR 2021-07-17 00:32:17.347 SUSPICIOUS ACTIVITY
21-0702599 305 BRUCE ST 2021-07-17 00:17:08.790 CHECKING PERSON
21-0702596 900 E SIEBENMORGEN RD 2021-07-16 23:52:46.750 CHECKING VEHICLE
21-0702595 2209 BROADVIEW AV 2021-07-16 23:40:58.773 LOUD NOISE-MUSIC
21-0702594 1201 DONAGHEY AV 2021-07-16 23:40:51.527 LOUD NOISE-MUSIC
21-0702593 530 S DONAGHEY AV 2021-07-16 23:37:55.483 ATTEMPT TO CONTACT
21-0702592 3100 IRBY DR 2021-07-16 23:27:41.343 LOUD NOISE-MUSIC
21-0702591 300 S DONAGHEY AV 2021-07-16 23:11:00.863 SHOTS FIRED
21-0702590 1524 HARDY ST 2021-07-16 23:10:54.833 DISCHARGING FIREWORKS
21-0702587 1201 DONAGHEY AV 2021-07-16 22:38:22.057 CHECKING VEHICLE
21-0702586 375 MONROE ST 2021-07-16 22:38:17.340 LOUD NOISE-MUSIC
21-0702585 2020 HILLMAN ST 2021-07-16 22:05:05.783 SHOTS FIRED
21-0702584 1952 BRUCE ST 2021-07-16 22:04:18.230 LOUD NOISE-MUSIC
21-0702583 406 S ASH ST 2021-07-16 22:03:10.690 DISCHARGING FIREWORKS
21-0702582 21-07261 2109 TYLER ST 2021-07-16 21:31:49.213 PROPERTY DAMAGE
21-0702579 48 FAIRMONT DR 2021-07-16 21:21:45.227 PARKING VIOLATION
21-0702578 142 CONWAY BLVD 2021-07-16 21:17:07.480 SUPPLEMENT REPORT CALL
21-0702577 4000 MAYTAG DR 2021-07-16 21:16:56.483 CHECKING PERSON
21-0702576 4010 MAYTAG DR 2021-07-16 21:04:45.363 CRIMINAL MISCHIEF
21-0702574 1595 SOUTH GERMAN LN 2021-07-16 20:53:23.447 CHECK ON THE WELFARE
21-0702569 22 MORNINGSIDE DR 2021-07-16 20:07:53.910 RECOVERED VEHICLE
21-0702568 1155 SKYLINE DR 2021-07-16 20:07:37.473 SUPPLEMENT REPORT CALL
21-0702567 21-07260 1632 DONAGHEY AV 2021-07-16 20:05:20.793 THEFT OF PROPERTY
21-0702565 3185 STONE RD 2021-07-16 19:16:32.373 TRESPASSING
21-0702563 21-07259 1155 SKYLINE DR 2021-07-16 18:51:24.567 LOST PROPERTY
21-0702562 675 DAVE WARD DR 2021-07-16 18:47:10.920 ALARM
21-0702560 2101 COLLEGE AV 2021-07-16 18:40:39.180 STALLED VEHICLE
21-0702559 1199 MORNINGSIDE DR 2021-07-16 18:24:16.757 SUSPICIOUS PERSON
21-0702558 1405 E OAK ST 2021-07-16 18:17:06.357 ALARM
21-0702557 3650 JEANNA DR 2021-07-16 18:12:16.160 SUSPICIOUS VEHICLE
21-0702555 1600 E OAK ST 2021-07-16 18:03:25.533 ALARM
21-0702554 1510 MILL ST 2021-07-16 17:36:11.120 ALARM
21-0702553 16 WOODBRIDGE DR 2021-07-16 17:36:09.270 PROPERTY DAMAGE
21-0702552 21-07258 150 E SIEBENMORGEN RD 2021-07-16 17:24:29.297 ABUSE
21-0702551 3065 PEBBLE BEACH DR 2021-07-16 17:10:32.530 ATTEMPT TO CONTACT
21-0702550 603 3RD ST 2021-07-16 16:58:56.277 DISTURBANCE
21-0702549 1100 E OAK ST 2021-07-16 16:47:44.637 ACCIDENT - PROPERTY DAMAGE
21-0702548 21-07257 1172 E OAK ST 2021-07-16 16:47:43.287 ACCIDENT - PROPERTY DAMAGE
21-0702546 21-07255 3180 PEBBLE BEACH DR 2021-07-16 16:44:35.993 THEFT OF PROPERTY
21-0702545 600 ELSINGER BLVD 2021-07-16 16:38:31.033 ATTEMPT TO CONTACT
21-0702544 3430 IRBY DR 2021-07-16 16:34:45.640 DOMESTIC DISTURBANCE
21-0702542 324 MITCHELL ST 2021-07-16 15:51:08.797 SHOTS FIRED
21-0702540 820 BILL DEAN DR 2021-07-16 15:43:40.423 THEFT OF PROPERTY
21-0702539 2900 DAVE WARD DR 2021-07-16 15:40:25.133 RECKLESS DRIVER
21-0702538 21-07254 831 PARKWAY ST 2021-07-16 15:28:57.167 ACCIDENT - PROPERTY DAMAGE
21-0702535 124 I40WB 2021-07-16 14:53:24.060 CHECK ON THE WELFARE
21-0702534 2135 RAINWOOD AV 2021-07-16 14:49:50.530 CHECKING VEHICLE
21-0702531 1825 E OAK ST 2021-07-16 14:30:47.423 TRESPASSING
21-0702530 1701 SALEM RD 2021-07-16 14:20:44.353 TRAFFIC LIGHT PROBLEM
21-0702527 21-07253 1855 RONALD RD 2021-07-16 13:57:36.290 FRAUD
21-0702526 1259 HARRISON ST 2021-07-16 13:46:34.520 TRESPASSING
21-0702524 1210 WILLIAM J CLARK DR 2021-07-16 13:38:32.623 CIVIL MATTER
21-0702523 600 SKYLINE DR 2021-07-16 13:34:45.943 CHECK ON THE WELFARE
21-0702522 114 S BARIDON ST 2021-07-16 13:33:51.010 REPOSSESSION
21-0702519 1105 PRAIRIE ST 2021-07-16 13:17:36.147 ATTEMPT TO CONTACT
21-0702517 21-07252 1105 PRAIRIE ST 2021-07-16 13:03:49.400 ACCIDENT - PROPERTY DAMAGE
21-0702516 325 S MITCHELL ST 2021-07-16 12:50:30.363 CIVIL STAND BY
21-0702515 5355 BURNT PINE DR 2021-07-16 12:47:08.053 ALARM
21-0702514 21-07251 2505 PRINCE ST 2021-07-16 12:27:32.967 ACCIDENT - PROPERTY DAMAGE
21-0702513 2900 DAVE WARD DR 2021-07-16 12:22:18.840 TRAFFIC PROBLEM-CONTROL
21-0702512 1155 SKYLINE DR 2021-07-16 12:17:28.207 CHECKING VEHICLE
21-0702511 1095 SKYLINE DR 2021-07-16 12:07:37.757 DOMESTIC DISTURBANCE
21-0702509 21-07250 3990 RUPERT DR 2021-07-16 12:03:15.150 BATTERY REPORT
21-0702508 21-07249 600 S HARKRIDER DR 2021-07-16 11:57:02.673 LOST-STOLEN LICENSE PLATE
21-0702506 100 APPLEGATE DR 2021-07-16 11:26:22.763 FRAUD
21-0702505 1290 CHOATE ST 2021-07-16 11:25:53.100 ATTEMPT TO CONTACT
21-0702503 21-07248 1128 SKYLINE DR 2021-07-16 11:08:44.640 ACCIDENT - PROPERTY DAMAGE
21-0702501 150 E SIEBENMORGEN RD 2021-07-16 11:07:16.210 DOMESTIC DISTURBANCE
21-0702499 800 INGRAM ST 2021-07-16 11:01:26.680 RECKLESS DRIVER
21-0702496 500 INGRAM ST 2021-07-16 10:38:09.260 TRAFFIC PROBLEM-CONTROL
21-0702495 21-07247 200 S BARIDON ST 2021-07-16 10:30:30.063 CHECK ON THE WELFARE
21-0702494 21-07246 1135 DOODLE CIR 2021-07-16 10:24:47.623 FRAUD
21-0702486 3700 DAVE WARD DR 2021-07-16 09:42:33.323 RECKLESS DRIVER
21-0702484 360 SHAW ST 2021-07-16 09:25:28.907 ATTEMPT TO CONTACT
21-0702483 700 S HOGAN LN 2021-07-16 09:22:45.503 CITIZEN ASSIST
21-0702482 21-07243 3900 DAVE WARD DR 2021-07-16 09:14:18.457 HARASSMENT
21-0702481 21-07244 1701 HARKRIDER ST 2021-07-16 09:10:17.220 ACCIDENT - PROPERTY DAMAGE
21-0702480 21-07242 2810 STONEWOOD DR 2021-07-16 08:40:06.537 THEFT OF VEHICLE
21-0702479 114 S BARIDON ST 2021-07-16 08:25:28.067 CHECK ON THE WELFARE
21-0702478 1985 RICH SMITH LN 2021-07-16 08:24:53.170 DISTURBANCE
21-0702477 1105 SKYLINE DR 2021-07-16 08:09:18.910 SUPPLEMENT REPORT CALL
21-0702476 1010 MAIN ST 2021-07-16 07:46:44.990 ALARM
21-0702475 21-07241 631 MILAM DR 2021-07-16 07:40:45.827 CHECK ON THE WELFARE
21-0702474 3635 PRINCE ST 2021-07-16 07:18:31.483 DOMESTIC DISTURBANCE
21-0702471 1815 OLD MORRILTON HWY 2021-07-16 06:40:31.310 CHECKING PERSON
21-0702469 410 ELSINGER BLVD 2021-07-16 06:17:16.600 ALARM
21-0702468 475 ROBINS ST 2021-07-16 06:14:45.660 BURGLARY
21-0702467 1775 OLD MORRILTON HWY 2021-07-16 05:11:44.337 TRESPASSING
21-0702466 21-07240 1803 MEADOWLAKE RD 2021-07-16 04:46:12.460 FRAUD
21-0702465 21-07239 584 COMMERCE RD 2021-07-16 03:30:46.410 FOUND PROPERTY
21-0702464 2235 DAVE WARD DR 2021-07-16 02:54:28.230 ALARM
21-0702463 101 OAK ST 2021-07-16 02:24:35.490 FIRE DEPT ASSIST
21-0702461 3635 PRINCE ST 2021-07-16 01:54:55.650 911 HANGUP CALL
21-0702460 1985 RICH SMITH LN 2021-07-16 01:51:24.613 REPOSSESSION
21-0702459 1600 E SIEBENMORGEN RD 2021-07-16 01:46:53.027 ALARM
21-0702458 1906 CLEVELAND AV 2021-07-16 01:29:46.523 CHECK ON THE WELFARE
21-0702457 1545 BLUE LUCERNE DR 2021-07-16 00:45:50.717 DOMESTIC DISTURBANCE
21-0702455 205 E OAK ST 2021-07-16 00:11:14.717 CHECK ON THE WELFARE
21-0702454 21-07238 2590 OVERCUP DR 2021-07-16 00:10:27.487 TRESPASSING
21-0702451 1810 SALEM RD 2021-07-15 23:55:14.497 REPOSSESSION
21-0702450 2370 SANDERS ST 2021-07-15 23:52:27.860 LOUD NOISE-MUSIC
21-0702449 2302 COLLEGE AV 2021-07-15 23:45:37.627 ATTEMPT TO CONTACT
21-0702448 1001 COUNTRY CLUB RD 2021-07-15 23:28:42.900 RECKLESS DRIVER
21-0702446 1935 ERBACH ST 2021-07-15 23:16:53.860 CHECK ON THE WELFARE
21-0702445 2160 HARKRIDER ST 2021-07-15 23:14:29.747 ALARM
21-0702444 1700 DUNCAN ST 2021-07-15 23:12:07.847 DISTURBANCE
21-0702443 584 COMMERCE RD 2021-07-15 23:05:19.437 UNAUTHORIZED USE OF MOTOR VEHICLE
21-0702440 645 MILAM DR 2021-07-15 22:29:41.220 CHECK ON THE WELFARE
21-0702438 835 S DONAGHEY AV 2021-07-15 22:12:45.970 AGENCY ASSIST
21-0702437 21-07236 1001 MCNUTT RD 2021-07-15 21:58:19.730 SHOTS FIRED
21-0702436 21-07237 1709 MARILYN DR 2021-07-15 21:57:36.473 FRAUD
21-0702434 21-07235 1405 S DONAGHEY AV 2021-07-15 21:50:22.670 DOMESTIC DISTURBANCE
21-0702433 100 STANLEY RUSS RD 2021-07-15 21:27:29.513 ACCIDENT - PROPERTY DAMAGE
21-0702430 21-07234 3165 MAJESTIC CIR 2021-07-15 20:54:29.920 ANIMAL BITE
21-0702428 375 E OAK ST 2021-07-15 20:36:00.233 DISTURBANCE
21-0702426 113 BARIDON ST 2021-07-15 20:25:20.393 INDECENT EXPOSURE
21-0702425 2695 DAVE WARD DR 2021-07-15 20:24:50.887 DOMESTIC DISTURBANCE
21-0702424 475 ROBINS ST 2021-07-15 20:23:10.223 MINOR IN POSSESSION
21-0702423 1817 BRUCE ST 2021-07-15 20:09:21.837 ATTEMPT TO CONTACT
21-0702422 2018 WEEMS ST 2021-07-15 20:03:55.630 ATTEMPT TO CONTACT
21-0702420 21-07231 1155 SKYLINE DR 2021-07-15 19:45:52.583 HARASSMENT
21-0702418 21-07232 1003 MUSEUM RD 2021-07-15 19:33:25.273 FRAUD
21-0702416 500 SOUTH GERMAN LN 2021-07-15 19:21:03.460 FELONY WARRANT SERVICE
21-0702415 550 E DAVE WARD DR 2021-07-15 19:17:43.373 ACCIDENT - PROPERTY DAMAGE
21-0702414 1355 EXCHANGE AV 2021-07-15 19:14:04.397 ALARM
21-0702413 3250 JW AND PAT BROWN BLVD 2021-07-15 18:53:51.180 ALARM
21-0702412 1750 ARDEN LN 2021-07-15 18:49:10.453 SUSPICIOUS ACTIVITY
21-0702411 215 SKYLINE DR 2021-07-15 18:34:37.860 DOMESTIC DISTURBANCE
21-0702410 500 E OAK ST 2021-07-15 18:32:31.063 STALLED VEHICLE
21-0702409 420 GARLAND ST 2021-07-15 18:16:51.200 UNKNOWN TROUBLE
21-0702408 21-07229 3680 DAVE WARD DR 2021-07-15 17:55:30.960 THEFT OF PROPERTY
21-0702406 2155 ROSEMARY DR 2021-07-15 17:36:00.073 RUNAWAY
21-0702405 21-07230 1110 MIMOSA DR 2021-07-15 17:33:06.843 CHECK ON THE WELFARE
21-0702403 1140 HARKRIDER ST 2021-07-15 17:18:05.923 CIVIL STAND BY
21-0702402 21-07228 355 SHAW ST 2021-07-15 16:52:45.037 FIRE DEPT ASSIST
21-0702400 1155 SKYLINE DR 2021-07-15 16:46:36.153 DOMESTIC DISTURBANCE
21-0702398 3285 COLLEGE AV 2021-07-15 15:50:41.303 ATTEMPT TO CONTACT
21-0702396 2021-07-15 15:40:03.337 AGENCY ASSIST
21-0702395 21-07227 4101 COLLEGE AV 2021-07-15 15:25:23.730 ACCIDENT - PROPERTY DAMAGE
21-0702394 500 ELSINGER BLVD 2021-07-15 15:20:26.850 THEFT OF PROPERTY
21-0702393 1322 BELLEMEADE DR 2021-07-15 15:19:39.360 NO CONTACT ORDER VIOLATION
21-0702391 21-07226 1425 SPRUCE ST 2021-07-15 15:03:12.887 ACCIDENT - PROPERTY DAMAGE
21-0702390 21-07223 1105 PRAIRIE ST 2021-07-15 15:01:21.940 FOUND PROPERTY
21-0702389 21-07224 1360 BRUCE ST 2021-07-15 14:53:19.647 ACCIDENT - PROPERTY DAMAGE
21-0702388 810 PARKWAY ST 2021-07-15 14:47:06.373 ATTEMPT TO CONTACT
21-0702387 21-07225 450 SKYLINE DR 2021-07-15 14:46:50.543 DISTURBANCE
21-0702386 1200 E DAVE WARD DR 2021-07-15 14:37:27.633 RECKLESS DRIVER
21-0702382 10 LOWER RIDGE RD 2021-07-15 13:57:25.460 DISTURBANCE
21-0702381 2018 WEEMS ST 2021-07-15 13:56:31.883 ATTEMPT TO CONTACT
21-0702380 375 E OAK ST 2021-07-15 13:40:33.287 FIGHT
21-0702378 475 ROBINS ST 2021-07-15 13:33:36.460 SUSPICIOUS PERSON
21-0702376 21-07221 3985 CIRRUS DR 2021-07-15 13:29:14.267 TERRORISTIC THREATENING
21-0702375 1000 S AMITY RD 2021-07-15 13:15:20.240 SUPPLEMENT REPORT CALL
21-0702373 1201 HOGAN LN 2021-07-15 13:04:38.430 RECKLESS DRIVER
21-0702372 21-07218 400 S AMITY RD 2021-07-15 12:55:10.363 ACCIDENT - PRIVATE PROPERTY
21-0702371 646 S HARKRIDER DR 2021-07-15 12:54:47.887 CHECKING PERSON
21-0702369 21-07217 4550 PRINCE ST 2021-07-15 12:41:29.383 TERRORISTIC THREATENING
21-0702368 127 I40EB 2021-07-15 12:39:38.957 SUPPLEMENT REPORT CALL
21-0702367 21-07222 1120 EAST GERMAN LN 2021-07-15 12:35:00.560 THEFT OF PROPERTY
21-0702365 1485 OLD MORRILTON HWY 2021-07-15 12:23:54.827 CIVIL MATTER
21-0702363 21-07214 900 INGRAM ST 2021-07-15 12:17:58.613 ACCIDENT - PERSONAL INJURY
21-0702362 21-07215 400 E DAVE WARD DR 2021-07-15 12:16:08.477 ACCIDENT - PROPERTY DAMAGE
21-0702361 2320 WASHINGTON AV 2021-07-15 12:11:02.880 VEHICLE TOW
21-0702358 619 SIEBENMORGEN RD 2021-07-15 12:00:18.870 AGENCY ASSIST
21-0702357 21-07212 260 SALEM RD 2021-07-15 11:58:48.517 CRIMINAL MISCHIEF
21-0702355 21-07213 1016 MARKHAM ST 2021-07-15 11:44:53.527 ACCIDENT - PRIVATE PROPERTY
21-0702352 21-07211 150 E SIEBENMORGEN RD 2021-07-15 11:34:21.990 ABUSE
21-0702351 2015 RICH SMITH LN 2021-07-15 11:29:41.137 CIVIL MATTER
21-0702349 21-07209 550 CLUB LN 2021-07-15 11:15:11.180 ACCIDENT - PRIVATE PROPERTY
21-0702348 21-07210 2699 DONAGHEY AV 2021-07-15 11:12:13.827 ACCIDENT - PROPERTY DAMAGE
21-0702347 1405 S DONAGHEY AV 2021-07-15 11:08:29.203 ATTEMPT TO CONTACT
21-0702343 21-07205 1001 MUSEUM RD 2021-07-15 11:05:12.200 ACCIDENT - PERSONAL INJURY
21-0702341 21-07207 1612 CHERRY ST 2021-07-15 10:50:46.240 ATTEMPT TO CONTACT
21-0702340 21-07202 1203 MUSEUM RD 2021-07-15 10:45:42.073 BURGLARY
21-0702339 2300 REMINGTON RD 2021-07-15 10:44:01.670 ALARM
21-0702335 1105 PRAIRIE ST 2021-07-15 10:29:47.553 ATTEMPT TO CONTACT
21-0702333 475 ROBINS ST 2021-07-15 10:13:26.657 ATTEMPT TO CONTACT
21-0702329 21-07206 3915 RUPERT DR 2021-07-15 09:37:34.063 LOST PROPERTY
21-0702326 1612 CHERRY ST 2021-07-15 09:31:08.410 TRESPASSING
21-0702324 21-07199 1400 E W MARTIN DR 2021-07-15 09:26:48.500 K9 SEARCH-REPORT
21-0702322 703 DONAGHEY AV 2021-07-15 09:09:39.700 CIVIL MATTER
21-0702320 2210 CEDAR OAKS DR 2021-07-15 09:06:53.337 BARKING DOG COMPLAINT
21-0702319 815 E OAK ST 2021-07-15 08:57:44.730 ATTEMPT TO CONTACT
21-0702317 1216 CLIFTON ST 2021-07-15 08:43:02.010 TRESPASSING
21-0702314 704 3RD AV 2021-07-15 08:04:49.467 PROPERTY DAMAGE
21-0702309 1155 SKYLINE DR 2021-07-15 07:08:35.850 CIVIL MATTER
21-0702308 2035 MAPLE RIDGE CIR 2021-07-15 06:38:48.690 ALARM
21-0702307 50 LOWER RIDGE RD 2021-07-15 06:10:04.867 LOUD NOISE-MUSIC
21-0702305 21-07197 875 SKYLINE DR 2021-07-15 02:26:43.513 STALLED VEHICLE
21-0702304 21-07196 1230 CLIFTON ST 2021-07-15 01:11:25.343 DOMESTIC DISTURBANCE
21-0702300 2820 COLLEGE AV 2021-07-15 00:08:24.257 TRESPASSING
21-0702299 1750 ARDEN LN 2021-07-15 00:02:52.987 SUSPICIOUS PERSON
21-0702298 I40WB 2021-07-14 23:41:00.990 RECKLESS DRIVER
21-0702297 2240 CHARLIE DAYER DR 2021-07-14 23:35:54.877 CHECK ON THE WELFARE
21-0702296 3545 DEERBROOK DR 2021-07-14 23:21:52.780 FIRE DEPT ASSIST
21-0702293 769 INGRAM ST 2021-07-14 23:20:12.387 CHECK ON THE WELFARE
21-0702291 5 CHEROKEE CIR 2021-07-14 23:12:13.120 CIVIL STAND BY
21-0702289 1632 DONAGHEY AV 2021-07-14 22:41:23.160 ALARM
21-0702288 2640 PRINCE ST 2021-07-14 22:39:19.923 CHECKING VEHICLE
21-0702287 2051 HARKRIDER ST 2021-07-14 22:12:31.103 ATTEMPT TO CONTACT
21-0702286 100 AMITY RD 2021-07-14 22:09:47.293 STALLED VEHICLE
21-0702282 1266 S AMITY RD 2021-07-14 21:54:37.770 SUSPICIOUS PERSON
21-0702280 1205 DAVE WARD DR 2021-07-14 21:08:10.850 ACCIDENT - PRIVATE PROPERTY
21-0702279 21-07192 1835 OTT MEMORIAL BLVD 2021-07-14 21:08:01.530 FIRE DEPT ASSIST
21-0702278 620 2ND ST 2021-07-14 20:59:57.800 CIVIL MATTER
21-0702276 4520 HAWKINS DR 2021-07-14 20:42:17.267 DOMESTIC DISTURBANCE
21-0702275 21-07193 475 ROBINS ST 2021-07-14 20:42:15.617 MISDEMEANOR WARRANT SERVICE
21-0702274 2745 CARL STUART ST 2021-07-14 20:39:32.757 CHECKING BUILDING
21-0702273 475 ROBINS ST 2021-07-14 20:34:43.507 SUPPLEMENT REPORT CALL
21-0702272 21-07191 59 MEADOWBROOK DR 2021-07-14 20:33:18.510 THEFT OF PROPERTY
21-0702271 21-07190 205 FARRIS RD 2021-07-14 20:23:14.077 ACCIDENT - PRIVATE PROPERTY
21-0702270 620 2ND ST 2021-07-14 19:54:56.957 SUPPLEMENT REPORT CALL
21-0702265 530 S DONAGHEY AV 2021-07-14 19:36:42.037 HARASSING COMMUNICATIONS
21-0702264 1803 MEADOWLAKE RD 2021-07-14 19:28:07.747 SUPPLEMENT REPORT CALL
21-0702263 21-07189 2915 DAVE WARD DR 2021-07-14 19:24:57.937 ACCIDENT - PRIVATE PROPERTY
21-0702262 142 CONWAY BLVD 2021-07-14 19:05:49.250 CIVIL STAND BY
21-0702259 21-07186 600 ELSINGER BLVD 2021-07-14 18:31:48.390 THEFT OF PROPERTY
21-0702258 21-07188 475 ROBINS ST 2021-07-14 18:30:01.980 DISTURBANCE
21-0702257 1100 NEAL ST 2021-07-14 18:27:11.160 TRAFFIC PROBLEM-CONTROL
21-0702256 601 4TH AV 2021-07-14 17:56:02.523 ATTEMPT TO CONTACT
21-0702255 21-07187 2190 NATURE TRL 2021-07-14 17:55:01.590 ACCIDENT - PRIVATE PROPERTY
21-0702254 1140 HARKRIDER ST 2021-07-14 17:52:04.940 DISTURBANCE
21-0702252 142 CONWAY BLVD 2021-07-14 17:35:09.777 HARASSING COMMUNICATIONS
21-0702249 21-07182 99 WINGATE DR 2021-07-14 17:19:26.133 ACCIDENT - PRIVATE PROPERTY
21-0702248 21-07183 401 AMITY RD 2021-07-14 17:18:46.420 ACCIDENT - PROPERTY DAMAGE
21-0702247 21-07184 1101 OLD MORRILTON HWY 2021-07-14 17:08:45.050 ACCIDENT - PROPERTY DAMAGE
21-0702246 530 S DONAGHEY AV 2021-07-14 17:05:08.510 TRESPASSING
21-0702245 21-07181 4300 COLLEGE AV 2021-07-14 16:59:10.163 ACCIDENT - PROPERTY DAMAGE
21-0702244 1909 TYLER ST 2021-07-14 16:56:50.913 TRESPASSING
21-0702243 21-07179 523 HARKRIDER ST 2021-07-14 16:49:59.833 ACCIDENT - PROPERTY DAMAGE
21-0702242 21-07178 601 ELSINGER BLVD 2021-07-14 16:42:43.097 THEFT OF PROPERTY
21-0702241 1105 PRAIRIE ST 2021-07-14 16:32:48.553 ATTEMPT TO CONTACT
21-0702240 235 ASH ST 2021-07-14 16:14:21.447 THEFT OF VEHICLE
21-0702237 21-07177 2830 KENT LN 2021-07-14 15:58:38.647 HARASSING COMMUNICATIONS
21-0702236 21-07176 300 S DONAGHEY AV 2021-07-14 15:55:48.507 FIGHT
21-0702234 1105 SKYLINE DR 2021-07-14 15:52:02.923 SUPPLEMENT REPORT CALL
21-0702232 3915 RUPERT DR 2021-07-14 15:36:43.657 LOST PROPERTY
21-0702231 21-07175 900 INGRAM ST 2021-07-14 15:36:25.833 ACCIDENT - PROPERTY DAMAGE
21-0702229 300 S DONAGHEY AV 2021-07-14 15:33:17.980 TERRORISTIC THREATENING
21-0702227 450 ROBINS ST 2021-07-14 15:21:47.417 DOMESTIC DISTURBANCE
21-0702225 2210 CEDAR OAKS DR 2021-07-14 15:04:38.470 BARKING DOG COMPLAINT
21-0702222 450 ROBINS ST 2021-07-14 14:53:31.903 ATTEMPT TO CONTACT
21-0702220 21-07174 3801 TYLER ST 2021-07-14 14:43:04.773 ACCIDENT - PRIVATE PROPERTY
21-0702217 21-07173 2400 PRINCE ST 2021-07-14 14:24:24.607 ACCIDENT - PRIVATE PROPERTY
21-0702215 21-07185 820 BILL DEAN DR 2021-07-14 14:01:08.860 FOUND PROPERTY
21-0702211 21-07172 380 HARKRIDER ST 2021-07-14 13:46:52.517 THEFT OF PROPERTY
21-0702208 21-07171 1000 S AMITY RD 2021-07-14 13:39:12.933 ACCIDENT - PROPERTY DAMAGE
21-0702207 2850 PRINCE ST 2021-07-14 13:38:27.703 NO CONTACT ORDER VIOLATION
21-0702206 500 SALEM RD 2021-07-14 13:36:58.570 CHECK ON THE WELFARE
21-0702201 1125 HARKRIDER ST 2021-07-14 13:03:00.590 SUPPLEMENT REPORT CALL
21-0702200 21-07170 1313 MCNUTT RD 2021-07-14 12:58:34.790 DOMESTIC DISTURBANCE
21-0702196 21-07169 500 ELSINGER BLVD 2021-07-14 12:46:53.947 ACCIDENT - PROPERTY DAMAGE
21-0702195 600 SKYLINE DR 2021-07-14 12:43:49.567 TRAFFIC LIGHT PROBLEM
21-0702194 440 WELLESLEY DR 2021-07-14 12:35:16.527 FRAUD
21-0702192 1105 SKYLINE DR 2021-07-14 12:21:47.643 SUPPLEMENT REPORT CALL
21-0702190 1313 MCNUTT RD 2021-07-14 12:06:30.200 DOMESTIC DISTURBANCE
21-0702189 2907 EGGMAN LN 2021-07-14 12:00:43.893 RECOVERED PROPERTY
21-0702188 1125 HARKRIDER ST 2021-07-14 11:59:41.310 SUPPLEMENT REPORT CALL
21-0702186 21-07168 801 SALEM RD 2021-07-14 11:39:28.060 ACCIDENT - PROPERTY DAMAGE
21-0702183 21-07166 1200 DAVE WARD DR 2021-07-14 11:34:20.983 ACCIDENT - PROPERTY DAMAGE
21-0702182 201 SKYLINE DR 2021-07-14 11:28:37.310 SUSPICIOUS PERSON
21-0702181 1155 SKYLINE DR 2021-07-14 11:25:45.770 CHECK ON THE WELFARE
21-0702178 21-07164 1610 WESTLAKE DR 2021-07-14 11:21:36.800 CRIMINAL MISCHIEF
21-0702177 2195 DAVE WARD DR 2021-07-14 11:17:32.160 CIVIL MATTER
21-0702175 1155 SKYLINE DR 2021-07-14 11:09:26.350 SUSPICIOUS PERSON
21-0702174 21-07163 1125 HARKRIDER ST 2021-07-14 11:07:50.010 AGENCY ASSIST
21-0702173 21-07165 1105 SKYLINE DR 2021-07-14 11:03:54.837 DEATH CALL
21-0702169 21-07161 620 CHESTNUT ST 2021-07-14 10:53:03.110 FRAUD
21-0702167 2165 BLANEY HILL RD 2021-07-14 10:39:52.940 ATTEMPT TO CONTACT
21-0702165 21-07162 430 2ND AV 2021-07-14 10:33:57.760 DEATH CALL
21-0702164 2018 WEEMS ST 2021-07-14 10:33:51.510 ATTEMPT TO CONTACT
21-0702159 1440 BERMUDA ST 2021-07-14 10:25:33.247 ATTEMPT TO CONTACT
21-0702157 1105 PRAIRIE ST 2021-07-14 10:22:17.670 ATTEMPT TO CONTACT
21-0702156 340 S BARIDON ST 2021-07-14 10:21:31.447 ATTEMPT TO CONTACT
21-0702155 1120 EAST GERMAN LN 2021-07-14 10:19:00.990 ATTEMPT TO CONTACT
21-0702152 1632 DONAGHEY AV 2021-07-14 09:57:40.520 DOMESTIC DISTURBANCE
21-0702150 2207 BROADVIEW AV 2021-07-14 09:55:43.453 SUSPICIOUS ACTIVITY
21-0702149 1120 EAST GERMAN LN 2021-07-14 09:49:58.207 SUPPLEMENT REPORT CALL
21-0702148 3240 STERMER RD 2021-07-14 09:49:10.823 ATTEMPT TO CONTACT
21-0702144 1155 SKYLINE DR 2021-07-14 09:29:13.010 CHECKING PERSON
21-0702142 1403 WILD ROSE CIR 2021-07-14 09:22:48.637 ALARM
21-0702139 21-07152 1400 CALDWELL ST 2021-07-14 09:14:08.243 ACCIDENT - PROPERTY DAMAGE
21-0702138 314 ELIZABETH ST 2021-07-14 09:13:28.147 AGENCY ASSIST
21-0702135 1912 DAVE WARD DR 2021-07-14 09:08:14.507 CRIMINAL MISCHIEF
21-0702131 170 S ASH ST 2021-07-14 08:54:19.620 ALARM
21-0702130 5230 STOCKTON RD 2021-07-14 08:44:56.923 ABANDONED VEHICLE
21-0702129 21-07150 707 ROBINS ST 2021-07-14 08:42:05.470 FRAUD
21-0702127 2050 DAVE WARD DR 2021-07-14 07:54:57.460 TRESPASSING
21-0702126 820 BILL DEAN DR 2021-07-14 07:53:35.660 TRESPASSING
21-0702125 1403 WILD ROSE CIR 2021-07-14 07:42:32.527 ALARM
21-0702124 21-07147 650 SKYLINE DR 2021-07-14 06:52:25.980 ACCIDENT - PROPERTY DAMAGE
21-0702123 580 E DAVE WARD DR 2021-07-14 06:50:11.440 ATTEMPT TO CONTACT
21-0702121 801 ELSINGER BLVD 2021-07-14 06:11:01.930 CHECK ON THE WELFARE
21-0702120 101 OAK ST 2021-07-14 05:41:15.323 STALLED VEHICLE
21-0702117 175 E OAK ST 2021-07-14 04:36:49.460 ALARM
21-0702116 3333 DAVE WARD DR 2021-07-14 02:41:05.277 CHECKING VEHICLE
21-0702115 821 HOGAN LN 2021-07-14 02:10:38.057 BATTERY REPORT
21-0702114 21-07146 580 E DAVE WARD DR 2021-07-14 01:38:20.917 CHECKING PERSON
21-0702113 3601 BISON DR 2021-07-14 01:27:34.853 CHECKING VEHICLE
21-0702112 475 ROBINS ST 2021-07-14 01:13:00.237 CHECKING PERSON
21-0702111 407 HEREFORD ST 2021-07-14 00:15:19.513 CHECK ON THE WELFARE
21-0702110 1555 EXCHANGE AV 2021-07-14 00:13:49.087 ATTEMPT TO CONTACT
21-0702109 3700 JEANNA DR 2021-07-14 00:09:24.227 TRESPASSING
Call Number Case Number Address Call Time Incident Type

General Contacts

POLICE HEADQUARTERS
1105 Prairie Street
Conway, AR 72032

Conway Police Department


  911 (EMERGENCIES ONLY)

  501.450.6120 (non-emergency)

   

City of Conway

We, the members of the Conway Police Department, are committed to protecting and serving the citizens of Conway, Arkansas. That is our highest calling, as we pledge to join hands with others in carrying out our sworn duty to uphold the law.

Chief William Tapley

Latest Tweets